Latitude: N 50° 09' 49" Longitude: W 05° 11' 53" Elevation: 168m ASL

There are 2 visitors online

Adverts

<- Previous Day | Today | Next Day ->

All Data for 14 March 2018

Time
A - D
Temp
A - D
Dew Point
A - D
Humidity
A - D
Pressure
A - D
Wind
A - D
Wind Dir Gust
A - D
Rain Rate
A - D
Rain Total
00:00 8.7 8.6 99 1003.4 15.2 SE 25.1 0.0 0.0
00:01 8.7 8.6 99 1003.5 15.2 SE 25.1 0.0 0.0
00:03 8.7 8.6 99 1003.2 15.2 SE 25.1 0.0 0.0
00:04 8.7 8.6 99 1003.5 15.2 SE 20.6 0.0 0.0
00:06 8.8 8.7 99 1003.4 16.8 SE 20.6 0.0 0.0
00:07 8.8 8.7 99 1003.2 13.0 S 20.6 0.0 0.0
00:09 8.8 8.7 99 1003.2 19.7 SE 19.7 0.0 0.0
00:10 8.8 8.7 99 1003.3 19.7 S 19.7 0.0 0.0
00:11 8.8 8.7 99 1003.3 14.5 SE 19.7 0.0 0.0
00:13 8.8 8.7 99 1003.4 15.9 SE 22.1 0.0 0.0
00:14 8.8 8.7 99 1003.5 13.0 S 22.1 0.0 0.0
00:15 8.8 8.7 99 1003.2 12.1 SE 22.1 0.0 0.0
00:16 8.8 8.7 99 1003.3 15.2 SE 22.1 0.0 0.0
00:17 8.8 8.7 99 1003.2 15.2 SE 22.1 0.0 0.0
00:19 8.8 8.7 99 1003.4 13.6 SE 22.1 0.0 0.0
00:21 8.8 8.7 99 1003.1 19.7 SE 22.1 0.0 0.0
00:23 8.8 8.7 99 1003.2 19.0 SE 20.6 0.0 0.0
00:24 8.8 8.7 99 1003.2 18.3 W 20.6 0.0 0.0
00:25 8.9 8.8 99 1003.1 16.8 SE 20.6 0.0 0.0
00:26 8.8 8.7 99 1003.2 13.6 E 20.6 0.0 0.0
00:27 8.8 8.7 99 1003.2 17.4 SE 25.1 0.0 0.0
00:28 8.8 8.7 99 1003.2 15.2 SE 25.1 0.0 0.0
00:30 8.9 8.8 99 1003.0 14.5 SE 25.1 0.0 0.0
00:31 8.9 8.8 99 1003.1 12.1 SE 25.1 0.0 0.0
00:32 8.8 8.7 99 1003.0 15.2 S 25.1 0.0 0.0
00:33 8.8 8.7 99 1003.0 16.8 SE 25.1 0.0 0.0
00:34 8.8 8.7 99 1002.9 21.3 SE 25.1 0.0 0.0
00:35 8.8 8.7 99 1002.8 19.0 SE 25.1 0.0 0.0
00:36 8.8 8.7 99 1002.9 15.9 SE 25.1 0.0 0.0
00:38 8.8 8.7 99 1002.7 12.1 SE 21.3 0.0 0.0
00:39 8.8 8.7 99 1002.7 18.3 SE 21.3 0.0 0.0
00:41 8.9 8.8 99 1002.7 17.4 E 21.3 0.0 0.0
00:42 8.9 8.8 99 1002.7 12.1 S 21.3 0.0 0.0
00:43 8.8 8.7 99 1002.7 19.7 SE 21.3 0.0 0.0
00:44 8.8 8.7 99 1002.5 18.3 SE 21.3 0.0 0.0
00:46 8.9 8.8 99 1002.5 16.8 SE 19.7 0.0 0.0
00:48 8.9 8.8 99 1002.5 19.0 E 19.7 0.0 0.0
00:49 8.9 8.8 99 1002.4 13.0 SE 19.7 0.0 0.0
00:51 8.9 8.8 99 1002.3 15.9 SE 19.7 0.0 0.0
00:52 8.9 8.8 99 1002.4 23.5 SE 23.5 0.0 0.0
00:53 8.9 8.8 99 1002.3 14.5 SE 23.5 0.0 0.0
00:55 8.9 8.8 99 1002.3 15.2 NW 23.5 0.0 0.0
00:56 8.9 8.8 99 1002.4 11.4 S 23.5 0.0 0.0
00:58 8.9 8.8 99 1002.3 13.6 E 23.5 0.0 0.0
00:59 8.9 8.8 99 1002.2 18.3 S 23.5 0.0 0.0
01:00 8.9 8.8 99 1002.3 20.6 SE 23.5 0.0 0.0
01:01 8.9 8.8 99 1002.2 20.6 SE 23.5 0.0 0.0
01:03 8.9 8.8 99 1002.3 20.6 SE 20.6 0.0 0.0
01:04 8.9 8.8 99 1002.2 20.6 SE 20.6 0.0 0.0
01:06 8.9 8.8 99 1002.3 14.5 SE 20.6 0.0 0.0
01:09 8.9 8.8 99 1002.2 19.7 SE 20.6 0.0 0.0
01:10 8.9 8.8 99 1002.1 13.0 SE 20.6 0.0 0.0
01:12 8.9 8.8 99 1002.2 11.4 SE 20.6 0.0 0.0
01:14 8.9 8.8 99 1002.1 13.6 SE 20.6 0.0 0.0
01:16 8.9 8.8 99 1002.2 13.6 S 19.7 0.0 0.0
01:19 8.9 8.8 99 1002.0 17.4 SE 19.7 0.0 0.0
01:21 8.9 8.8 99 1002.0 15.2 SE 18.3 0.0 0.0
01:23 8.9 8.8 99 1002.3 12.1 S 18.3 0.0 0.0
01:25 8.9 8.8 99 1002.1 15.2 SE 18.3 0.0 0.0
01:27 8.9 8.8 99 1002.2 13.0 E 18.3 0.0 0.0
01:29 8.9 8.8 99 1002.1 12.1 SE 18.3 0.0 0.0
01:30 8.9 8.8 99 1002.1 9.8 SE 18.3 0.0 0.0
01:32 8.9 8.8 99 1002.2 15.9 S 17.4 0.0 0.0
01:34 8.9 8.8 99 1002.2 14.5 SE 17.4 0.0 0.0
01:36 9.0 8.9 99 1002.2 14.5 SE 16.8 0.0 0.0
01:38 9.0 8.9 99 1002.1 18.3 E 18.3 0.0 0.0
01:41 9.0 8.9 99 1002.2 19.7 SE 24.4 0.0 0.0
01:44 9.0 8.9 99 1002.1 17.4 SE 24.4 0.0 0.0
01:46 9.0 8.9 99 1002.1 13.0 SE 24.4 0.0 0.0
01:48 9.0 8.9 99 1001.8 14.5 SE 24.4 0.0 0.0
01:51 9.0 8.9 99 1002.1 19.7 SE 19.7 0.0 0.0
01:53 9.0 8.9 99 1002.0 18.3 SE 19.7 0.0 0.0
01:55 9.1 9.0 99 1001.9 10.7 S 19.7 0.0 0.0
01:58 9.0 8.9 99 1001.9 17.4 SE 19.7 0.0 0.0
02:00 9.0 8.9 99 1001.8 15.9 SE 19.7 0.0 0.0
02:02 9.0 8.9 99 1001.7 15.9 SE 18.3 0.0 0.0
02:04 9.0 8.9 99 1001.6 15.9 SE 17.4 0.0 0.0
02:07 9.1 9.0 99 1001.5 19.0 SE 19.0 0.0 0.0
02:09 9.1 9.0 99 1001.5 15.9 SE 19.0 0.0 0.0
02:11 9.1 9.0 99 1001.5 19.0 SE 19.7 0.0 0.0
02:14 9.1 9.0 99 1001.2 16.8 SE 20.6 0.0 0.0
02:17 9.1 9.0 99 1001.3 17.4 E 20.6 0.0 0.0
02:20 9.1 9.0 99 1001.3 15.2 SE 20.6 0.0 0.0
02:22 9.1 9.0 99 1001.3 15.9 SE 19.0 0.0 0.0
02:25 9.1 9.0 99 1001.2 19.0 SE 19.0 0.0 0.0
02:27 9.1 9.0 99 1001.2 12.1 SE 19.0 0.0 0.0
02:28 9.1 9.0 99 1000.9 15.9 SE 19.0 0.0 0.0
02:29 9.1 9.0 99 1001.0 13.6 SE 19.0 0.0 0.0
02:31 9.1 9.0 99 1000.9 15.2 SE 19.0 0.0 0.0
02:37 9.1 9.0 99 1000.7 17.4 SE 19.7 0.0 0.0
02:38 9.1 9.0 99 1000.7 11.4 SE 19.7 0.0 0.0
02:39 9.1 9.0 99 1000.7 14.5 SE 19.7 0.0 0.0
02:40 9.1 9.0 99 1000.8 15.2 SE 19.7 0.0 0.0
02:41 9.1 9.0 99 1000.6 13.6 SE 19.7 0.0 0.0
02:42 9.1 9.0 99 1000.6 22.1 SE 22.1 0.0 0.0
02:43 9.1 9.0 99 1000.7 19.7 S 22.1 0.0 0.0
02:44 9.1 9.0 99 1000.5 20.6 E 22.1 0.0 0.0
02:45 9.1 9.0 99 1000.2 12.1 SE 22.1 0.0 0.0
02:46 9.1 9.0 99 1000.3 14.5 SE 22.1 0.0 0.0
02:47 9.1 9.0 99 1000.2 17.4 SE 22.1 0.0 0.0
02:49 9.1 9.0 99 1000.5 13.6 SE 22.1 0.0 0.0
02:50 9.1 9.0 99 1000.5 19.0 SE 22.1 0.0 0.0
02:51 9.1 9.0 99 1000.5 16.8 SE 22.1 0.0 0.0
02:52 9.1 9.0 99 1000.2 22.8 SE 22.8 0.0 0.0
02:53 9.1 9.0 99 1000.4 15.9 SE 22.8 0.0 0.0
02:54 9.1 9.0 99 1000.2 19.0 SE 22.8 0.0 0.0
02:55 9.1 9.0 99 1000.2 19.0 SE 22.8 0.0 0.0
02:56 9.1 9.0 99 1000.2 13.0 SE 22.8 0.0 0.0
02:57 9.1 9.0 99 1000.2 14.5 SE 22.8 0.0 0.0
02:58 9.1 9.0 99 1000.1 13.0 SW 22.8 0.0 0.0
02:59 9.1 9.0 99 1000.1 11.4 SE 22.8 0.0 0.0
03:00 9.1 9.0 99 999.9 11.4 SE 22.8 0.0 0.0
03:01 9.1 9.0 99 1000.3 11.4 SE 22.8 0.0 0.0
03:02 9.1 9.0 99 1000.0 11.4 SE 19.7 0.0 0.0
03:03 9.1 9.0 99 999.9 11.4 SE 19.7 0.0 0.0
03:04 9.1 9.0 99 999.9 17.4 SE 19.7 0.0 0.0
03:05 9.1 9.0 99 1000.0 14.5 SE 19.7 0.0 0.0
03:06 9.1 9.0 99 1000.1 15.2 SE 19.7 0.0 0.0
03:07 9.1 9.0 99 1000.1 15.2 SE 19.7 0.0 0.0
03:09 9.1 9.0 99 999.9 19.0 SE 19.7 0.0 0.0
03:10 9.1 9.0 99 999.8 15.2 W 19.7 0.0 0.0
03:11 9.1 9.0 99 999.7 12.1 SE 19.7 0.0 0.0
03:12 9.1 9.0 99 999.8 15.9 SE 19.7 0.0 0.0
03:13 9.1 9.0 99 1000.0 19.7 SE 19.7 0.0 0.0
03:14 9.1 9.0 99 999.8 17.4 S 19.7 0.0 0.0
03:15 9.1 9.0 99 999.9 18.3 SE 19.7 0.0 0.0
03:16 9.1 9.0 99 999.7 14.5 E 19.7 0.0 0.0
03:17 9.1 9.0 99 999.7 13.6 E 19.7 0.0 0.0
03:18 9.1 9.0 99 999.7 13.6 E 19.7 0.0 0.0
03:19 9.1 9.0 99 999.7 19.0 SE 19.7 0.0 0.0
03:20 9.1 9.0 99 999.7 18.3 SE 19.7 0.0 0.0
03:21 9.1 9.0 99 999.4 18.3 SE 19.7 0.0 0.0
03:22 9.1 9.0 99 999.5 16.8 SE 19.7 0.0 0.0
03:23 9.1 9.0 99 999.7 12.1 SE 19.0 0.0 0.0
03:24 9.1 9.0 99 999.5 15.9 SE 19.0 0.0 0.0
03:25 9.1 9.0 99 999.6 18.3 S 19.0 0.0 0.0
03:26 9.1 9.0 99 999.5 13.0 SE 19.0 0.0 0.0
03:28 9.1 9.0 99 999.3 18.3 SE 19.0 0.0 0.0
03:29 9.1 9.0 99 999.4 17.4 SE 19.0 0.0 0.0
03:30 9.1 9.0 99 999.4 20.6 SE 20.6 0.0 0.0
03:31 9.1 9.0 99 999.5 16.8 SE 20.6 0.0 0.0
03:32 9.1 9.0 99 999.5 16.8 SE 20.6 0.0 0.0
03:33 9.1 9.0 99 999.3 13.6 E 20.6 0.0 0.0
03:34 9.1 9.0 99 999.3 22.8 SE 22.8 0.0 0.0
03:35 9.1 9.0 99 999.2 18.3 SE 22.8 0.0 0.0
03:36 9.1 9.0 99 999.2 18.3 SE 22.8 0.0 0.0
03:37 9.1 9.0 99 999.2 11.4 S 22.8 0.0 0.0
03:38 9.1 9.0 99 999.2 12.1 SE 22.8 0.0 0.0
03:39 9.1 9.0 99 999.3 16.8 SE 22.8 0.0 0.0
03:40 9.1 9.0 99 999.3 16.8 SE 22.8 0.0 0.0
03:41 9.1 9.0 99 999.2 16.8 SE 22.8 0.0 0.0
03:42 9.1 9.0 99 999.1 15.9 SE 22.8 0.0 0.0
03:43 9.1 9.0 99 999.2 22.1 SE 22.8 0.0 0.0
03:44 9.1 9.0 99 999.1 18.3 SE 22.1 0.0 0.0
03:45 9.1 9.0 99 999.1 17.4 SE 22.1 0.0 0.0
03:46 9.1 9.0 99 999.1 15.2 SE 22.1 0.0 0.0
03:47 9.1 9.0 99 999.1 13.6 E 22.1 0.0 0.0
03:49 9.1 9.0 99 998.8 20.6 SE 22.1 0.0 0.0
03:50 9.1 9.0 99 998.9 19.0 SE 22.1 0.0 0.0
03:51 9.1 9.0 99 998.9 19.0 SE 22.1 0.0 0.0
03:52 9.1 9.0 99 998.8 20.6 SE 22.1 0.0 0.0
03:53 9.1 9.0 99 998.9 21.3 SE 22.1 0.0 0.0
03:54 9.2 9.1 99 998.9 15.9 SE 21.3 0.0 0.0
03:55 9.2 9.1 99 998.9 16.8 SE 21.3 0.0 0.0
03:56 9.2 9.1 99 998.7 17.4 SE 21.3 0.0 0.0
03:57 9.2 9.1 99 998.9 18.3 SE 21.3 0.0 0.0
03:58 9.2 9.1 99 998.9 13.0 SE 21.3 0.0 0.0
03:59 9.1 9.0 99 998.7 11.4 S 21.3 0.0 0.0
04:00 9.1 9.0 99 998.8 11.4 S 21.3 0.0 0.0
04:01 9.2 9.1 99 998.7 19.0 SE 21.3 0.0 0.0
04:02 9.2 9.1 99 998.9 18.3 E 21.3 0.0 0.0
04:03 9.2 9.1 99 998.6 19.7 SE 20.6 0.0 0.0
04:04 9.2 9.1 99 998.9 17.4 SE 20.6 0.0 0.0
04:05 9.2 9.1 99 998.7 13.0 SE 20.6 0.0 0.0
04:06 9.2 9.1 99 998.7 15.2 E 20.6 0.0 0.0
04:08 9.2 9.1 99 998.7 12.1 N 20.6 0.0 0.0
04:09 9.2 9.1 99 998.7 18.3 SE 19.7 0.0 0.0
04:10 9.2 9.1 99 998.7 19.7 E 19.7 0.0 0.0
04:11 9.2 9.1 99 998.8 19.7 SE 19.7 0.0 0.0
04:14 9.2 9.1 99 998.6 19.7 E 19.7 0.0 0.0
04:15 9.2 9.1 99 998.6 19.0 SE 19.7 0.0 0.0
04:16 9.2 9.1 99 998.4 20.6 S 20.6 0.0 0.0
04:17 9.2 9.1 99 998.6 20.6 SE 20.6 0.0 0.0
04:18 9.2 9.1 99 998.4 20.6 SE 20.6 0.0 0.0
04:19 9.2 9.1 99 998.7 20.6 SE 20.6 0.0 0.0
04:20 9.2 9.1 99 998.6 19.7 SE 20.6 0.0 0.0
04:21 9.2 9.1 99 998.5 16.8 SE 20.6 0.0 0.0
04:22 9.2 9.1 99 998.5 19.0 SE 20.6 0.0 0.0
04:23 9.2 9.1 99 998.4 18.3 SE 20.6 0.0 0.0
04:24 9.2 9.1 99 998.4 13.0 SE 20.6 0.0 0.0
04:25 9.2 9.1 99 998.5 17.4 SE 20.6 0.0 0.0
04:26 9.2 9.1 99 998.5 16.8 SE 23.5 0.0 0.0
04:27 9.2 9.1 99 998.4 20.6 SE 23.5 0.0 0.0
04:28 9.2 9.1 99 998.3 20.6 S 23.5 0.0 0.0
04:29 9.2 9.1 99 998.3 16.8 SE 23.5 0.0 0.0
04:30 9.2 9.1 99 998.4 20.6 SE 23.5 0.0 0.0
04:31 9.2 9.1 99 998.2 15.2 SE 23.5 0.0 0.0
04:32 9.2 9.1 99 998.4 15.2 S 23.5 0.0 0.0
04:34 9.2 9.1 99 998.3 17.4 SE 23.5 0.0 0.0
04:35 9.1 9.0 99 998.4 14.5 S 23.5 0.0 0.0
04:36 9.1 9.0 99 998.3 15.2 SE 20.6 0.0 0.0
04:37 9.1 9.0 99 998.1 15.9 SE 20.6 0.0 0.0
04:38 9.1 9.0 99 998.3 26.6 S 26.6 0.0 0.0
04:39 9.1 9.0 99 998.1 17.4 SE 26.6 0.0 0.0
04:40 9.1 9.0 99 998.2 17.4 SE 26.6 0.0 0.0
04:41 9.1 9.0 99 998.0 19.7 SE 26.6 0.0 0.0
04:42 9.1 9.0 99 998.0 23.5 SE 26.6 0.0 0.0
04:43 9.1 9.0 99 998.1 23.5 SE 26.6 0.0 0.0
04:44 9.1 9.0 99 998.1 19.7 SE 26.6 0.0 0.0
04:45 9.1 9.0 99 998.0 15.2 S 26.6 0.0 0.0
04:46 9.1 9.0 99 998.0 19.0 SE 26.6 0.0 0.0
04:47 9.1 9.0 99 998.0 18.3 SE 26.6 0.0 0.0
04:48 9.1 9.0 99 998.0 17.4 SE 23.5 0.0 0.0
04:49 9.1 9.0 99 998.1 17.4 SE 23.5 0.0 0.0
04:50 9.1 9.0 99 998.0 16.8 SE 23.5 0.0 0.0
04:51 9.1 9.0 99 998.0 16.8 SE 23.5 0.0 0.0
04:53 9.1 9.0 99 997.8 17.4 SE 23.5 0.0 0.0
04:54 9.1 9.0 99 997.9 13.6 SE 20.6 0.0 0.0
04:55 9.1 9.0 99 997.9 16.8 SE 20.6 0.0 0.0
04:56 9.1 9.0 99 997.9 19.7 SE 20.6 0.0 0.0
04:57 9.1 9.0 99 997.9 14.5 SE 19.7 0.0 0.0
04:58 9.1 9.0 99 997.8 16.8 SE 22.1 0.0 0.0
04:59 9.1 9.0 99 997.7 16.8 SE 22.1 0.0 0.0
05:00 9.0 8.9 99 997.8 16.8 SE 22.1 0.0 0.0
05:01 9.0 8.9 99 997.8 16.8 SE 22.1 0.0 0.0
05:02 9.0 8.9 99 997.6 16.8 SE 22.1 0.0 0.0
05:03 9.0 8.9 99 997.9 16.8 SE 22.1 0.0 0.0
05:04 9.0 8.9 99 997.8 16.8 SE 22.1 0.0 0.0
05:05 9.0 8.9 99 997.8 17.4 SE 22.1 0.0 0.0
05:06 9.0 8.9 99 997.7 20.6 WNW 22.1 0.0 0.0
05:07 9.0 8.9 99 997.7 20.6 SE 20.6 0.0 0.0
05:08 9.0 8.9 99 997.7 15.2 SE 20.6 0.0 0.0
05:09 9.0 8.9 99 997.7 15.2 SE 23.5 0.0 0.0
05:10 9.1 9.0 99 997.6 15.9 SE 23.5 0.0 0.0
05:11 9.0 8.9 99 997.6 11.4 SE 23.5 0.0 0.0
05:13 9.0 8.9 99 997.5 11.4 SE 23.5 0.0 0.0
05:14 9.0 8.9 99 997.7 13.6 SE 23.5 0.0 0.0
05:15 9.0 8.9 99 997.7 14.5 SE 23.5 0.0 0.0
05:16 9.0 8.9 99 997.4 20.6 SE 23.5 0.0 0.0
05:17 9.0 8.9 99 997.5 18.3 SE 23.5 0.0 0.0
05:18 9.0 8.9 99 997.5 19.0 SE 23.5 0.0 0.0
05:19 9.0 8.9 99 997.3 19.0 SE 23.5 0.0 0.0
05:20 9.0 8.9 99 997.5 22.1 E 22.1 0.0 0.0
05:21 9.0 8.9 99 997.5 17.4 SE 22.1 0.0 0.0
05:22 9.0 8.9 99 997.5 14.5 SE 22.1 0.0 0.0
05:23 9.0 8.9 99 997.4 25.9 S 25.9 0.0 0.0
05:24 9.0 8.9 99 997.4 25.1 SE 25.9 0.0 0.0
05:25 9.0 8.9 99 997.4 15.2 SE 25.9 0.0 0.0
05:26 9.0 8.9 99 997.3 20.6 SE 25.9 0.0 0.0
05:27 9.1 9.0 99 997.5 13.6 SE 25.9 0.0 0.0
05:28 9.0 8.9 99 997.3 19.7 SE 25.9 0.0 0.0
05:29 9.0 8.9 99 997.1 14.5 SE 25.9 0.0 0.0
05:30 9.0 8.9 99 997.3 16.8 SE 25.9 0.0 0.0
05:31 9.0 8.9 99 997.1 16.8 SE 25.9 0.0 0.0
05:33 9.0 8.9 99 997.2 17.4 SSW 25.9 0.0 0.0
05:34 9.1 9.0 99 997.1 17.4 SSW 25.1 0.0 0.0
05:35 9.0 8.9 99 997.2 22.1 S 22.1 0.0 0.0
05:36 9.1 9.0 99 997.0 15.9 SE 22.1 0.0 0.0
05:37 9.0 8.9 99 996.9 15.9 SE 22.1 0.0 0.0
05:38 9.0 8.9 99 997.0 12.1 SE 22.1 0.0 0.0
05:39 9.0 8.9 99 996.9 14.5 E 22.1 0.0 0.0
05:40 9.0 8.9 99 996.9 19.0 E 22.1 0.0 0.0
05:41 9.0 8.9 99 997.1 21.3 SE 22.8 0.8 0.1
05:42 9.0 8.9 99 996.9 14.5 SE 22.8 0.8 0.1
05:43 9.0 8.9 99 996.8 23.5 SE 23.5 0.8 0.1
05:44 9.0 8.9 99 997.0 17.4 SE 23.5 0.8 0.1
05:45 9.0 8.9 99 996.8 25.1 E 25.1 0.8 0.1
05:46 9.0 8.9 99 996.8 21.3 SE 25.1 0.0 0.1
05:47 9.0 8.9 99 996.8 13.0 SE 25.1 0.0 0.1
05:48 9.0 8.9 99 996.6 15.9 SE 25.1 0.0 0.1
05:49 9.0 8.9 99 996.7 23.5 SE 25.1 0.8 0.1
05:50 9.0 8.9 99 996.7 23.5 SE 25.1 0.8 0.1
05:52 9.0 8.9 99 996.7 23.5 E 25.1 0.8 0.1
05:53 9.0 8.9 99 996.6 16.8 E 25.1 0.8 0.1
05:54 9.0 8.9 99 996.7 18.3 E 25.1 0.0 0.1
05:55 9.0 8.9 99 996.6 15.2 S 25.1 0.0 0.1
05:56 9.0 8.9 99 996.5 22.1 S 25.1 0.0 0.1
05:57 9.0 8.9 99 996.5 18.3 SE 23.5 0.0 0.1
05:58 9.0 8.9 99 996.6 15.9 E 23.5 0.0 0.1
05:59 9.0 8.9 99 996.6 17.4 E 23.5 0.0 0.1
06:00 9.0 8.9 99 996.6 15.2 SE 23.5 0.0 0.1
06:01 9.0 8.9 99 996.6 19.0 SE 23.5 0.0 0.1
06:02 9.0 8.9 99 996.6 22.1 SE 22.1 0.0 0.1
06:03 9.0 8.9 99 996.4 24.4 SE 24.4 0.0 0.1
06:04 8.9 8.8 99 996.5 19.7 SE 24.4 0.0 0.1
06:05 9.0 8.9 99 996.3 15.9 SE 26.6 0.0 0.1
06:06 8.9 8.8 99 996.3 27.3 NE 27.3 0.0 0.1
06:07 9.0 8.9 99 996.4 17.4 E 27.3 0.0 0.1
06:09 8.9 8.8 99 996.4 15.2 E 27.3 0.0 0.1
06:11 8.9 8.8 99 996.2 22.8 SE 27.3 0.0 0.1
06:12 8.9 8.8 99 996.3 20.6 SE 27.3 0.0 0.1
06:13 8.9 8.8 99 996.1 14.5 SE 27.3 0.0 0.1
06:14 8.9 8.8 99 996.2 13.6 E 27.3 0.0 0.1
06:15 8.9 8.8 99 996.2 15.9 SE 27.3 0.0 0.1
06:16 8.9 8.8 99 996.1 22.8 SE 27.3 0.0 0.1
06:17 8.9 8.8 99 996.1 22.1 SE 22.8 0.0 0.1
06:18 8.9 8.8 99 996.0 12.1 SE 22.8 0.0 0.1
06:19 8.9 8.8 99 996.1 17.4 SE 22.8 0.0 0.1
06:20 8.9 8.8 99 996.2 15.2 NE 22.8 0.0 0.1
06:21 8.9 8.8 99 996.0 16.8 SE 22.8 0.8 0.2
06:22 8.9 8.8 99 996.0 15.9 S 22.8 0.8 0.2
06:25 8.9 8.8 99 995.9 16.8 SE 22.8 1.5 0.3
06:26 8.9 8.8 99 995.9 15.9 SE 22.8 0.8 0.3
06:27 8.9 8.8 99 995.8 14.5 SE 22.1 0.8 0.3
06:28 8.9 8.8 99 995.9 22.1 SE 22.1 0.8 0.3
06:29 8.8 8.7 99 995.9 14.5 E 22.1 0.0 0.3
06:30 8.9 8.8 99 995.8 22.8 E 22.8 0.0 0.3
06:31 8.9 8.8 99 995.8 17.4 SE 22.8 0.0 0.3
06:32 8.9 8.8 99 995.9 13.6 SE 22.8 0.0 0.3
06:33 8.9 8.8 99 995.7 21.3 SE 22.8 0.0 0.3
06:34 8.9 8.8 99 995.8 16.8 SE 22.8 0.0 0.3
06:35 8.8 8.7 99 996.0 11.4 SE 22.8 0.0 0.3
06:36 8.8 8.7 99 995.8 15.2 SE 22.8 0.0 0.3
06:37 8.8 8.7 99 995.8 19.7 SE 22.8 0.0 0.3
06:38 8.8 8.7 99 995.9 22.1 SE 22.8 0.0 0.3
06:39 8.8 8.7 99 995.8 19.7 SE 22.8 0.8 0.3
06:40 8.8 8.7 99 995.8 16.8 SE 22.8 0.8 0.3
06:41 8.8 8.7 99 995.6 16.8 SE 22.1 0.8 0.3
06:42 8.8 8.7 99 995.7 18.3 S 22.1 0.8 0.3
06:43 8.8 8.7 99 995.7 13.0 E 22.1 0.8 0.3
06:44 8.8 8.7 99 995.7 15.9 SE 22.8 0.0 0.3
06:45 8.8 8.7 99 995.8 24.4 SE 24.4 0.0 0.3
06:46 8.8 8.7 99 995.7 16.8 SE 24.4 0.0 0.3
06:47 8.8 8.7 99 995.6 25.1 SE 25.1 0.0 0.3
06:48 8.8 8.7 99 995.5 22.8 SE 25.1 0.0 0.3
06:49 8.8 8.7 99 995.7 17.4 SE 25.1 0.0 0.3
06:50 8.8 8.7 99 995.6 17.4 SE 25.1 0.0 0.3
06:51 8.8 8.7 99 995.7 25.9 NE 25.9 0.0 0.3
06:52 8.8 8.7 99 995.6 18.3 E 25.9 0.0 0.3
06:53 8.8 8.7 99 995.6 22.1 SE 28.2 0.0 0.3
06:54 8.8 8.7 99 995.6 19.0 SE 28.2 0.0 0.3
06:55 8.8 8.7 99 995.6 19.0 S 28.2 0.0 0.3
06:56 8.8 8.7 99 995.6 19.0 S 28.2 0.0 0.3
06:57 8.8 8.7 99 995.5 19.0 SE 28.2 0.0 0.3
06:58 8.8 8.7 99 995.4 18.3 SW 28.2 0.0 0.3
06:59 8.8 8.7 99 995.5 17.4 SE 28.2 0.0 0.3
07:00 8.8 8.7 99 995.5 17.4 SE 28.2 0.0 0.3
07:01 8.8 8.7 99 995.3 15.2 SE 28.2 0.0 0.3
07:02 8.8 8.7 99 995.3 14.5 SE 22.1 0.0 0.3
07:03 8.8 8.7 99 995.4 17.4 SE 20.6 0.0 0.3
07:04 8.9 8.8 99 995.4 14.5 SE 20.6 0.0 0.3
07:05 8.8 8.7 99 995.5 18.3 SE 22.8 0.0 0.3
07:06 8.8 8.7 99 995.5 19.0 SE 22.8 0.0 0.3
07:07 8.8 8.7 99 995.4 18.3 SE 22.8 0.0 0.3
07:08 8.8 8.7 99 995.4 16.8 SE 22.8 0.0 0.3
07:09 8.8 8.7 99 995.2 15.2 SE 22.8 0.0 0.3
07:10 8.8 8.7 99 995.3 21.3 SE 22.8 0.0 0.3
07:11 8.8 8.7 99 995.3 21.3 SE 22.8 0.0 0.3
07:12 8.8 8.7 99 995.4 17.4 S 22.8 0.0 0.3
07:13 8.8 8.7 99 995.1 19.0 SE 22.8 0.0 0.3
07:14 8.8 8.7 99 995.2 13.6 SE 22.8 0.0 0.3
07:15 8.8 8.7 99 995.3 28.9 SE 28.9 0.0 0.3
07:16 8.8 8.7 99 995.3 22.8 SE 28.9 0.0 0.3
07:17 8.8 8.7 99 995.3 19.7 SE 28.9 0.0 0.3
07:18 8.8 8.7 99 995.3 18.3 SE 28.9 0.0 0.3
07:19 8.8 8.7 99 995.2 24.4 SE 28.9 0.0 0.3
07:20 8.8 8.7 99 995.2 13.0 N 28.9 0.0 0.3
07:21 8.8 8.7 99 995.2 19.0 SE 28.9 0.0 0.3
07:22 8.8 8.7 99 995.2 12.1 SE 28.9 0.0 0.3
07:23 8.8 8.7 99 995.3 18.3 E 28.9 0.0 0.3
07:24 8.8 8.7 99 995.2 12.1 SE 28.9 0.0 0.3
07:25 8.8 8.7 99 995.3 25.9 SE 28.9 0.8 0.4
07:26 8.8 8.7 99 995.1 14.5 E 25.9 0.8 0.4
07:27 8.8 8.7 99 995.0 16.8 SE 25.9 0.8 0.4
07:28 8.8 8.7 99 995.1 25.9 SE 25.9 0.8 0.4
07:29 8.8 8.7 99 995.2 20.6 SE 25.9 0.8 0.4
07:30 8.8 8.7 99 994.9 15.9 N 25.9 0.0 0.4
07:31 8.9 8.8 99 995.1 17.4 E 25.9 0.0 0.4
07:32 8.8 8.7 99 995.1 15.9 SE 25.9 0.0 0.4
07:33 8.8 8.7 99 995.1 24.4 SE 25.9 0.0 0.4
07:34 8.8 8.7 99 995.0 18.3 E 25.9 0.0 0.4
07:35 8.8 8.7 99 994.9 15.9 W 25.9 0.0 0.4
07:36 8.8 8.7 99 994.9 18.3 E 25.9 0.0 0.4
07:37 8.8 8.7 99 995.0 20.6 SE 25.9 0.0 0.4
07:38 8.8 8.7 99 994.7 17.4 E 24.4 0.0 0.4
07:39 8.8 8.7 99 994.8 16.8 SE 24.4 0.0 0.4
07:40 8.8 8.7 99 994.8 19.0 SE 24.4 0.0 0.4
07:41 8.8 8.7 99 994.7 20.6 SE 24.4 0.0 0.4
07:42 8.8 8.7 99 994.7 16.8 SE 24.4 0.0 0.4
07:43 8.8 8.7 99 994.8 18.3 S 20.6 0.0 0.4
07:44 8.8 8.7 99 994.9 24.4 E 24.4 0.0 0.4
07:45 8.8 8.7 99 994.9 22.1 SE 24.4 0.0 0.4
07:47 8.8 8.7 99 994.6 16.8 SE 24.4 0.0 0.4
07:48 8.8 8.7 99 994.5 22.8 NE 24.4 0.0 0.4
07:49 8.8 8.7 99 994.7 17.4 SE 24.4 0.0 0.4
07:50 8.8 8.7 99 994.8 17.4 SE 24.4 0.0 0.4
07:51 8.8 8.7 99 994.5 15.9 E 24.4 0.0 0.4
07:52 8.8 8.7 99 994.7 15.9 SE 24.4 0.0 0.4
07:53 8.8 8.7 99 994.6 20.6 SE 24.4 0.0 0.4
07:54 8.8 8.7 99 994.5 14.5 E 24.4 0.0 0.4
07:55 8.8 8.7 99 994.7 16.8 SE 24.4 0.0 0.4
07:56 8.8 8.7 99 994.4 18.3 SE 24.4 0.0 0.4
07:57 8.8 8.7 99 994.6 18.3 S 24.4 0.0 0.4
07:58 8.8 8.7 99 994.4 23.5 SE 24.4 0.0 0.4
07:59 8.8 8.7 99 994.3 20.6 SE 24.4 0.0 0.4
08:00 8.8 8.7 99 994.4 20.6 SE 24.4 0.0 0.4
08:01 8.8 8.7 99 994.3 20.6 SE 24.4 0.0 0.4
08:02 8.8 8.7 99 994.3 20.6 SE 24.4 0.0 0.4
08:03 8.8 8.7 99 994.4 20.6 SE 24.4 0.0 0.4
08:04 8.8 8.7 99 994.4 20.6 SE 24.4 0.0 0.4
08:05 8.8 8.7 99 994.3 20.6 SE 23.5 0.0 0.4
08:06 8.8 8.7 99 994.5 13.6 SE 23.5 0.0 0.4
08:07 8.8 8.7 99 994.4 18.3 NE 23.5 0.0 0.4
08:08 8.8 8.7 99 994.4 24.4 SE 24.4 0.0 0.4
08:09 8.8 8.7 99 994.3 15.9 SE 24.4 0.0 0.4
08:11 8.8 8.7 99 994.4 17.4 SE 24.4 0.0 0.4
08:12 8.8 8.7 99 994.3 22.1 SE 24.4 0.0 0.4
08:13 8.8 8.7 99 994.3 15.9 SE 24.4 0.0 0.4
08:14 8.8 8.7 99 994.1 18.3 SE 24.4 0.0 0.4
08:16 8.8 8.7 99 994.3 19.7 E 24.4 0.0 0.4
08:17 8.8 8.7 99 994.3 13.6 SE 24.4 0.0 0.4
08:18 8.8 8.7 99 994.3 18.3 SE 22.1 0.0 0.4
08:19 8.8 8.7 99 994.1 15.2 SE 22.1 0.0 0.4
08:20 8.8 8.7 99 994.2 20.6 SE 22.1 0.0 0.4
08:22 8.8 8.7 99 994.3 20.6 SE 27.3 0.0 0.4
08:23 8.8 8.7 99 994.2 19.7 SE 27.3 0.0 0.4
08:24 8.8 8.7 99 994.2 22.8 SE 27.3 0.0 0.4
08:25 8.8 8.7 99 994.2 16.8 SSW 27.3 0.0 0.4
08:26 8.8 8.7 99 994.1 25.9 SE 27.3 0.0 0.4
08:27 8.8 8.7 99 994.3 25.1 S 27.3 0.0 0.4
08:29 8.8 8.7 99 994.0 24.4 SE 27.3 0.0 0.4
08:30 8.8 8.7 99 994.1 20.6 SE 27.3 0.0 0.4
08:31 8.8 8.7 99 994.0 17.4 E 27.3 0.0 0.4
08:32 8.8 8.7 99 994.1 14.5 SE 26.6 0.0 0.4
08:33 8.8 8.7 99 994.1 22.8 SE 26.6 0.0 0.4
08:34 8.8 8.7 99 994.1 23.5 SE 26.6 0.0 0.4
08:35 8.8 8.7 99 994.1 15.9 SE 26.6 0.0 0.4
08:36 8.8 8.7 99 994.0 23.5 SE 26.6 0.0 0.4
08:37 8.8 8.7 99 994.0 23.5 SE 26.6 0.0 0.4
08:38 8.7 8.6 99 994.0 24.4 E 24.4 0.8 0.4
08:39 8.7 8.6 99 994.1 21.3 E 24.4 0.8 0.4
08:40 8.7 8.6 99 994.0 18.3 SE 24.4 0.8 0.4
08:41 8.7 8.6 99 994.0 23.5 S 24.4 0.8 0.5
08:42 8.8 8.7 99 994.0 22.8 SE 24.4 1.5 0.5
08:44 8.8 8.7 99 994.0 20.6 SE 24.4 0.8 0.5
08:45 8.7 8.6 99 993.9 26.6 SE 26.6 0.8 0.5
08:46 8.7 8.6 99 993.9 19.0 NNW 26.6 0.8 0.5
08:47 8.7 8.6 99 993.7 15.9 SE 26.6 0.0 0.5
08:48 8.7 8.6 99 993.9 13.6 NE 26.6 0.0 0.5
08:49 8.7 8.6 99 994.0 22.1 S 26.6 0.0 0.6
08:50 8.7 8.6 99 993.8 22.8 NNE 26.6 0.8 0.6
08:52 8.7 8.6 99 993.8 22.8 NW 26.6 0.8 0.6
08:53 8.7 8.6 99 993.6 18.3 SE 26.6 0.8 0.6
08:54 8.7 8.6 99 993.8 12.1 SE 26.6 0.8 0.6
08:55 8.7 8.6 99 993.6 18.3 SE 26.6 0.0 0.6
08:56 8.7 8.6 99 993.7 13.0 SE 22.8 0.0 0.6
08:57 8.7 8.6 99 993.7 13.6 SE 22.8 0.0 0.6
08:58 8.7 8.6 99 993.7 15.2 SE 22.8 0.0 0.6
08:59 8.7 8.6 99 993.8 20.6 S 22.8 0.0 0.6
09:00 8.7 8.6 99 993.6 20.6 S 22.8 0.0 0.6
09:02 8.7 8.6 99 993.7 20.6 S 22.8 0.0 0.6
09:03 8.7 8.6 99 993.5 20.6 S 20.6 0.0 0.6
09:04 8.7 8.6 99 993.5 20.6 S 20.6 0.0 0.6
09:05 8.8 8.7 99 993.6 15.2 NE 20.6 0.0 0.6
09:06 8.7 8.6 99 993.5 18.3 NE 20.6 0.0 0.6
09:07 8.7 8.6 99 993.3 16.8 SE 20.6 0.8 0.6
09:08 8.7 8.6 99 993.4 22.1 SE 22.1 0.8 0.6
09:09 8.7 8.6 99 993.5 16.8 SE 22.1 0.8 0.6
09:10 8.7 8.6 99 993.4 17.4 SE 22.1 0.8 0.6
09:12 8.7 8.6 99 993.5 28.2 E 28.2 0.0 0.6
09:13 8.7 8.6 99 993.3 21.3 SE 28.2 0.0 0.6
09:14 8.7 8.6 99 993.4 16.8 SE 28.2 0.0 0.6
09:15 8.7 8.6 99 993.4 25.1 SE 28.2 0.0 0.6
09:16 8.7 8.6 99 993.4 19.0 E 28.2 0.0 0.6
09:17 8.7 8.6 99 993.4 13.6 NE 28.2 0.0 0.6
09:18 8.7 8.6 99 993.3 15.9 SE 28.2 0.0 0.6
09:19 8.7 8.6 99 993.4 15.2 E 28.2 0.0 0.6
09:20 8.7 8.6 99 993.4 24.4 SE 28.2 0.8 0.7
09:21 8.7 8.6 99 993.3 19.0 E 28.2 0.8 0.7
09:22 8.8 8.7 99 993.2 22.8 SE 25.1 0.8 0.8
09:23 8.8 8.7 99 993.3 19.0 SE 25.1 1.5 0.8
09:24 8.8 8.7 99 993.3 18.3 SE 25.1 1.5 0.8
09:25 8.8 8.7 99 993.1 22.1 SE 24.4 0.8 0.8
09:26 8.8 8.7 99 993.1 11.4 E 24.4 0.8 0.8
09:27 8.8 8.7 99 993.1 19.7 SE 24.4 0.8 0.8
09:28 8.8 8.7 99 993.1 16.8 SE 24.4 0.8 0.8
09:29 8.7 8.6 99 993.1 15.9 SE 24.4 0.8 0.8
09:30 8.8 8.7 99 993.0 15.2 SE 22.8 0.8 0.8
09:33 8.8 8.7 99 993.0 29.8 SE 29.8 1.5 0.9
09:34 8.7 8.6 99 993.1 26.6 SE 29.8 1.5 0.9
09:35 8.8 8.7 99 993.1 19.7 S 29.8 1.5 0.9
09:36 8.7 8.6 99 993.0 22.1 SE 29.8 1.5 0.9
09:37 8.7 8.6 99 993.0 17.4 SE 29.8 1.5 0.9
09:38 8.8 8.7 99 992.9 24.4 SE 29.8 0.0 0.9
09:39 8.7 8.6 99 992.8 17.4 SE 29.8 0.0 0.9
09:40 8.7 8.6 99 992.9 23.5 E 29.8 0.0 0.9
09:41 8.7 8.6 99 992.7 22.1 E 29.8 0.0 0.9
09:42 8.8 8.7 99 992.8 15.9 SE 29.8 0.0 0.9
09:43 8.8 8.7 99 992.9 15.2 SE 26.6 0.0 0.9
09:44 8.7 8.6 99 992.7 25.1 SE 25.1 0.0 0.9
09:45 8.7 8.6 99 992.8 22.8 SE 25.1 0.0 0.9
09:46 8.8 8.7 99 992.9 13.6 N 25.1 0.0 0.9
09:47 8.7 8.6 99 992.8 23.5 E 25.1 0.0 0.9
09:48 8.7 8.6 99 992.8 16.8 SE 25.1 0.0 1.0
09:50 8.7 8.6 99 992.8 14.5 SE 25.1 0.8 1.0
09:51 8.7 8.6 99 992.7 22.8 SE 25.1 0.8 1.0
09:52 8.7 8.6 99 992.7 22.1 SE 25.1 0.8 1.0
09:53 8.7 8.6 99 992.5 15.2 SE 25.1 0.8 1.0
09:54 8.7 8.6 99 992.7 13.6 S 25.1 0.0 1.0
09:55 8.7 8.6 99 992.6 18.3 SE 25.1 0.0 1.0
09:56 8.7 8.6 99 992.7 25.1 SE 25.1 0.0 1.0
09:57 8.7 8.6 99 992.7 15.9 SE 25.1 0.0 1.0
09:58 8.7 8.6 99 992.6 16.8 SE 25.1 0.0 1.0
09:59 8.7 8.6 99 992.7 20.6 S 25.1 0.0 1.0
10:00 8.7 8.6 99 992.7 21.3 SE 25.1 0.0 1.0
10:01 8.7 8.6 99 992.6 21.3 SE 25.1 0.0 1.0
10:02 8.7 8.6 99 992.4 21.3 SE 25.1 0.0 1.0
10:03 8.7 8.6 99 992.4 21.3 SE 25.1 0.0 1.0
10:04 8.7 8.6 99 992.5 21.3 SE 25.1 0.0 1.0
10:05 8.7 8.6 99 992.5 21.3 SE 25.1 0.0 1.0
10:06 8.7 8.6 99 992.5 23.5 SE 25.1 0.0 1.0
10:07 8.7 8.6 99 992.5 20.6 SE 24.4 0.0 1.0
10:09 8.7 8.6 99 992.4 15.2 SE 24.4 0.0 1.0
10:11 8.7 8.6 99 992.2 16.8 S 24.4 0.0 1.0
10:13 8.7 8.6 99 992.2 17.4 SE 24.4 0.0 1.0
10:14 8.7 8.6 99 992.3 16.8 SE 24.4 0.0 1.0
10:15 8.7 8.6 99 992.5 22.8 SE 24.4 0.0 1.0
10:17 8.7 8.6 99 992.1 15.9 E 22.8 0.0 1.0
10:18 8.7 8.6 99 992.2 15.2 SE 22.8 0.0 1.0
10:19 8.7 8.6 99 992.1 25.9 E 25.9 0.0 1.0
10:20 8.7 8.6 99 992.1 19.0 SE 25.9 0.0 1.0
10:21 8.7 8.6 99 992.0 17.4 SE 25.9 0.0 1.0
10:22 8.7 8.6 99 992.3 23.5 SE 25.9 0.0 1.0
10:23 8.8 8.7 99 992.1 20.6 SE 25.9 0.0 1.0
10:24 8.8 8.7 99 992.1 17.4 SE 25.9 0.0 1.0
10:25 8.8 8.7 99 992.1 13.0 S 25.9 0.0 1.0
10:26 8.8 8.7 99 992.2 20.6 SE 25.9 0.0 1.0
10:27 8.8 8.7 99 992.2 17.4 SE 25.9 0.0 1.0
10:28 8.8 8.7 99 992.1 16.8 NE 25.9 0.0 1.0
10:29 8.8 8.7 99 992.2 19.0 SE 25.9 0.0 1.0
10:30 8.8 8.7 99 991.9 13.6 SE 23.5 0.0 1.0
10:31 8.8 8.7 99 991.9 23.5 SE 23.5 0.0 1.0
10:33 8.9 8.8 99 992.0 17.4 NNE 23.5 0.0 1.0
10:34 8.9 8.8 99 991.8 21.3 SE 26.6 0.0 1.0
10:35 8.9 8.8 99 991.8 13.6 SSW 26.6 0.0 1.0
10:36 8.9 8.8 99 991.8 24.4 SE 26.6 0.8 1.1
10:37 8.9 8.8 99 991.9 23.5 SE 26.6 0.8 1.1
10:38 8.9 8.8 99 991.9 23.5 SE 26.6 0.8 1.1
10:39 8.9 8.8 99 991.7 23.5 SE 26.6 0.8 1.1
10:40 8.9 8.8 99 991.7 18.3 E 26.6 0.8 1.1
10:41 8.9 8.8 99 992.0 22.1 SE 26.6 0.0 1.1
10:42 9.0 8.9 99 991.8 22.1 NE 26.6 0.0 1.1
10:43 9.0 8.9 99 991.7 17.4 SE 26.6 0.0 1.1
10:44 9.0 8.9 99 991.7 18.3 SE 24.4 0.0 1.1
10:45 9.0 8.9 99 991.7 16.8 S 24.4 0.0 1.1
10:46 9.0 8.9 99 991.7 20.6 SSW 23.5 0.0 1.1
10:47 9.0 8.9 99 991.8 19.7 NE 23.5 0.0 1.1
10:48 9.0 8.9 99 991.8 22.1 SE 23.5 0.0 1.1
10:49 9.0 8.9 99 991.7 23.5 S 23.5 0.0 1.1
10:50 9.0 8.9 99 991.7 21.3 SE 23.5 0.0 1.1
10:51 9.0 8.9 99 991.7 24.4 SE 24.4 0.0 1.1
10:52 9.0 8.9 99 991.6 16.8 N 24.4 0.0 1.1
10:53 9.0 8.9 99 991.6 21.3 SE 24.4 0.0 1.1
10:54 9.0 8.9 99 991.5 23.5 S 24.4 0.0 1.1
10:55 9.0 8.9 99 991.5 17.4 S 24.4 0.0 1.1
10:56 9.0 8.9 99 991.3 19.7 SE 24.4 0.0 1.1
10:57 9.0 8.9 99 991.4 24.4 SE 24.4 0.0 1.1
10:58 9.0 8.9 99 991.3 16.8 SE 24.4 0.0 1.1
10:59 8.9 8.8 99 991.5 21.3 SE 24.4 0.0 1.1
11:00 8.9 8.8 99 991.4 21.3 SE 24.4 0.0 1.1
11:01 8.9 8.8 99 991.4 21.3 SE 24.4 0.0 1.1
11:02 8.9 8.8 99 991.2 21.3 SE 24.4 0.0 1.1
11:03 8.9 8.8 99 991.3 21.3 SE 24.4 0.0 1.1
11:04 8.9 8.8 99 991.3 21.3 SE 24.4 0.0 1.1
11:05 8.9 8.8 99 991.4 21.3 SE 24.4 0.0 1.1
11:06 9.0 8.9 99 991.3 22.8 E 24.4 0.0 1.1
11:07 9.0 8.9 99 991.2 15.9 E 24.4 0.0 1.1
11:08 9.0 8.9 99 991.3 19.7 S 22.8 0.0 1.1
11:09 9.0 8.9 99 991.4 15.2 SE 22.8 0.0 1.1
11:10 9.0 8.9 99 991.2 27.3 SE 27.3 0.0 1.1
11:11 9.0 8.9 99 991.3 20.6 SE 27.3 0.0 1.1
11:12 9.0 8.9 99 991.3 16.8 NE 27.3 0.0 1.1
11:13 8.9 8.8 99 991.6 18.3 NE 27.3 0.0 1.1
11:14 8.9 8.8 99 991.2 22.1 SE 27.3 0.0 1.1
11:15 9.0 8.9 99 991.3 20.6 E 27.3 0.0 1.1
11:16 9.0 8.9 99 991.3 15.9 SE 27.3 0.0 1.1
11:17 9.0 8.9 99 991.3 24.4 SE 27.3 0.0 1.1
11:18 9.0 8.9 99 991.2 27.3 SE 27.3 0.0 1.1
11:19 9.0 8.9 99 991.4 20.6 SE 27.3 0.0 1.1
11:20 9.0 8.9 99 991.2 19.0 SE 27.3 0.0 1.1
11:21 9.0 8.9 99 991.1 22.8 SE 27.3 0.0 1.1
11:22 9.0 8.9 99 991.2 16.8 SE 27.3 0.0 1.1
11:23 9.0 8.9 99 991.2 24.4 SE 27.3 0.0 1.1
11:25 9.0 8.9 99 991.2 25.9 SE 27.3 0.0 1.1
11:26 9.0 8.9 99 991.0 24.4 SE 27.3 0.8 1.1
11:27 9.0 8.9 99 991.2 19.0 E 27.3 0.8 1.1
11:28 9.0 8.9 99 991.0 22.8 SE 27.3 0.8 1.1
11:29 9.0 8.9 99 991.0 19.0 E 27.3 0.8 1.1
11:30 9.0 8.9 99 991.0 19.7 SE 25.9 0.8 1.1
11:31 9.0 8.9 99 990.9 19.7 SE 25.9 0.0 1.1
11:32 9.0 8.9 99 991.0 18.3 S 25.9 0.0 1.1
11:33 9.0 8.9 99 990.9 17.4 SE 25.9 0.0 1.1
11:34 9.0 8.9 99 990.9 17.4 S 25.9 0.0 1.1
11:35 9.0 8.9 99 990.6 17.4 WSW 24.4 0.0 1.1
11:36 9.0 8.9 99 990.7 24.4 SE 24.4 0.0 1.1
11:37 9.0 8.9 99 990.6 13.6 NE 24.4 0.0 1.1
11:38 9.0 8.9 99 990.7 15.2 SE 24.4 0.0 1.1
11:39 9.0 8.9 99 990.8 15.2 NE 24.4 0.0 1.1
11:40 9.0 8.9 99 990.7 18.3 NE 24.4 0.0 1.1
11:41 9.0 8.9 99 990.8 16.8 N 24.4 0.0 1.1
11:42 9.0 8.9 99 990.8 19.7 SE 24.4 0.0 1.1
11:43 9.0 8.9 99 990.8 16.8 SE 24.4 0.0 1.1
11:44 9.1 9.0 99 990.7 15.9 E 24.4 0.0 1.1
11:45 9.0 8.9 99 990.7 19.0 SW 24.4 0.0 1.1
11:46 9.1 9.0 99 990.6 21.3 SE 21.3 0.0 1.1
11:47 9.1 9.0 99 990.5 22.8 E 22.8 0.0 1.1
11:48 9.1 9.0 99 990.7 25.9 SE 25.9 0.8 1.2
11:49 9.2 9.1 99 990.7 19.7 SE 25.9 0.8 1.2
11:50 9.1 9.0 99 990.4 19.0 SE 25.9 0.8 1.2
11:51 9.2 9.1 99 990.4 15.9 N 25.9 0.8 1.2
11:52 9.2 9.1 99 990.4 16.8 S 25.9 0.8 1.2
11:53 9.2 9.1 99 990.4 19.0 SE 25.9 0.0 1.2
11:54 9.2 9.1 99 990.4 15.9 SE 25.9 0.0 1.2
11:55 9.2 9.1 99 990.3 19.7 SE 25.9 0.0 1.2
11:56 9.3 9.2 99 990.3 17.4 SE 25.9 0.0 1.2
11:57 9.2 9.1 99 990.2 25.1 SE 25.9 0.0 1.2
11:58 9.3 9.2 99 990.4 17.4 E 25.1 0.0 1.2
11:59 9.3 9.2 99 990.3 18.3 N 25.1 0.0 1.2
12:00 9.3 9.2 99 990.3 18.3 N 25.1 0.0 1.2
12:01 9.3 9.2 99 990.3 18.3 N 25.1 0.0 1.2
12:02 9.3 9.2 99 990.3 18.3 N 25.1 0.0 1.2
12:03 9.3 9.2 99 990.3 18.3 N 25.1 0.0 1.2
12:04 9.3 9.2 99 990.3 18.3 N 25.1 0.0 1.2
12:05 9.3 9.2 99 990.2 18.3 N 25.1 0.0 1.2
12:06 9.3 9.2 99 990.2 18.3 SE 25.1 0.0 1.2
12:07 9.3 9.2 99 990.2 17.4 SE 19.7 0.0 1.2
12:08 9.3 9.2 99 990.1 13.0 SE 19.7 0.0 1.2
12:10 9.3 9.2 99 990.2 22.1 E 22.1 0.0 1.2
12:11 9.3 9.2 99 990.1 20.6 SE 22.1 0.0 1.2
12:13 9.4 9.3 99 990.0 23.5 SE 23.5 0.0 1.2
12:14 9.3 9.2 99 990.2 15.2 SE 23.5 0.0 1.2
12:15 9.4 9.3 99 990.0 20.6 SE 23.5 0.0 1.2
12:17 9.4 9.3 99 990.1 15.2 SE 23.5 0.0 1.2
12:18 9.4 9.3 99 990.0 22.8 SE 23.5 0.0 1.2
12:19 9.4 9.3 99 990.0 18.3 SE 23.5 0.0 1.2
12:20 9.4 9.3 99 990.0 22.1 SE 23.5 0.0 1.2
12:21 9.4 9.3 99 990.0 19.7 SE 23.5 0.0 1.2
12:22 9.4 9.3 99 989.9 19.7 NNW 23.5 0.0 1.2
12:23 9.4 9.3 99 989.8 20.6 SE 23.5 0.0 1.2
12:24 9.4 9.3 99 989.9 16.8 E 23.5 0.0 1.2
12:25 9.4 9.3 99 989.9 15.9 SE 23.5 0.0 1.2
12:26 9.4 9.3 99 989.9 19.0 SE 23.5 0.0 1.2
12:28 9.4 9.3 99 990.0 23.5 SE 23.5 0.0 1.2
12:29 9.4 9.3 99 989.8 15.9 E 23.5 0.0 1.2
12:30 9.4 9.3 99 989.7 15.9 SE 23.5 0.0 1.2
12:31 9.4 9.3 99 990.0 19.7 S 23.5 0.0 1.2
12:32 9.4 9.3 99 989.7 12.1 E 23.5 0.0 1.2
12:33 9.4 9.3 99 989.8 14.5 E 23.5 0.0 1.2
12:34 9.4 9.3 99 989.7 16.8 SE 23.5 0.0 1.2
12:35 9.4 9.3 99 989.7 16.8 N 23.5 0.0 1.2
12:36 9.4 9.3 99 989.7 12.1 SE 23.5 0.0 1.2
12:37 9.4 9.3 99 989.7 13.0 SE 23.5 0.0 1.2
12:38 9.4 9.3 99 989.6 16.8 SE 19.7 0.0 1.2
12:39 9.4 9.3 99 989.8 14.5 SE 19.7 0.0 1.2
12:40 9.4 9.3 99 989.7 15.9 SE 19.7 0.0 1.2
12:41 9.4 9.3 99 989.7 14.5 SE 18.3 0.0 1.2
12:42 9.3 9.2 99 989.6 12.1 SE 18.3 0.8 1.3
12:43 9.4 9.3 99 989.7 12.1 SE 18.3 0.8 1.3
12:45 9.4 9.3 99 989.5 17.4 SE 18.3 0.8 1.3
12:46 9.3 9.2 99 989.6 15.9 SE 18.3 0.8 1.3
12:47 9.4 9.3 99 989.5 8.3 SE 18.3 0.0 1.3
12:48 9.3 9.2 99 989.5 11.4 N 18.3 0.0 1.3
12:49 9.3 9.2 99 989.4 15.9 S 18.3 0.8 1.3
12:50 9.3 9.2 99 989.6 22.1 SE 22.1 0.8 1.3
12:51 9.3 9.2 99 989.6 21.3 SE 22.1 0.8 1.3
12:52 9.3 9.2 99 989.6 15.9 SE 22.1 0.8 1.3
12:53 9.3 9.2 99 989.3 15.9 SE 22.1 0.8 1.3
12:54 9.3 9.2 99 989.4 13.0 SE 22.1 0.0 1.3
12:55 9.3 9.2 99 989.3 19.0 NE 22.1 0.0 1.3
12:56 9.3 9.2 99 989.4 16.8 S 22.1 0.0 1.3
12:58 9.3 9.2 99 989.2 13.0 SE 22.1 0.0 1.3
12:59 9.3 9.2 99 989.2 13.0 SE 22.1 0.0 1.3
13:00 9.3 9.2 99 989.2 9.2 SE 21.3 0.8 1.4
13:01 9.3 9.2 99 989.3 9.2 SE 19.0 0.8 1.4
13:02 9.3 9.2 99 989.2 9.2 SE 19.0 0.8 1.4
13:03 9.3 9.2 99 989.2 9.2 SE 19.0 0.8 1.4
13:04 9.3 9.2 99 989.2 9.2 SE 19.0 0.8 1.4
13:05 9.3 9.2 99 989.2 9.2 SE 16.8 0.0 1.4
13:07 9.3 9.2 99 989.1 13.0 S 15.2 0.0 1.4
13:08 9.2 9.1 99 989.1 12.1 S 13.0 0.0 1.4
13:09 9.2 9.1 99 989.0 10.7 NE 13.0 0.0 1.4
13:10 9.2 9.1 99 989.1 16.8 NE 16.8 0.0 1.4
13:11 9.2 9.1 99 989.0 10.7 SE 16.8 0.0 1.4
13:12 9.2 9.1 99 989.0 9.2 SE 16.8 0.0 1.4
13:13 9.2 9.1 99 989.0 13.0 SE 16.8 0.0 1.4
13:14 9.1 9.0 99 988.9 12.1 SE 16.8 0.0 1.4
13:15 9.2 9.1 99 988.7 9.2 NE 16.8 0.0 1.4
13:16 9.2 9.1 99 988.7 21.3 NE 21.3 0.0 1.4
13:17 9.2 9.1 99 988.8 13.0 S 21.3 0.0 1.4
13:18 9.1 9.0 99 989.0 18.3 SE 21.3 0.0 1.4
13:19 9.1 9.0 99 988.8 22.8 NE 22.8 0.0 1.4
13:20 9.1 9.0 99 988.7 13.6 SE 22.8 0.0 1.4
13:21 9.1 9.0 99 988.7 15.2 SE 22.8 0.0 1.4
13:22 9.1 9.0 99 989.0 15.2 S 22.8 0.0 1.4
13:23 9.1 9.0 99 988.9 13.0 E 22.8 0.0 1.4
13:24 9.2 9.1 99 988.8 14.5 N 25.9 0.0 1.4
13:25 9.2 9.1 99 988.8 16.8 E 25.9 0.0 1.4
13:26 9.2 9.1 99 989.1 23.5 NW 25.9 0.0 1.4
13:27 9.1 9.0 99 988.8 15.9 SE 25.9 0.0 1.4
13:28 9.2 9.1 99 988.7 16.8 E 25.9 0.8 1.4
13:29 9.2 9.1 99 988.7 19.7 SE 25.9 0.8 1.4
13:31 9.1 9.0 99 988.7 20.6 S 25.9 0.8 1.4
13:32 9.2 9.1 99 988.7 11.4 NE 25.9 0.8 1.4
13:33 9.1 9.0 99 988.6 15.2 SE 25.9 0.0 1.4
13:34 9.1 9.0 99 988.7 15.2 E 23.5 0.8 1.5
13:35 9.1 9.0 99 988.6 17.4 SE 23.5 0.8 1.5
13:36 9.1 9.0 99 988.6 16.8 SW 23.5 0.8 1.5
13:37 9.1 9.0 99 988.5 15.2 E 20.6 0.8 1.5
13:38 9.1 9.0 99 988.4 13.6 WSW 20.6 1.5 1.6
13:39 9.1 9.0 99 988.6 13.0 SE 20.6 0.8 1.6
13:40 9.1 9.0 99 988.5 19.0 N 20.6 0.8 1.6
13:41 9.2 9.1 99 988.5 9.8 SE 19.0 1.5 1.6
13:42 9.1 9.0 99 988.4 10.7 SE 19.0 1.5 1.6
13:43 9.1 9.0 99 988.6 13.6 E 19.0 0.8 1.6
13:44 9.1 9.0 99 988.7 15.2 SE 19.0 0.8 1.6
13:45 9.1 9.0 99 988.5 12.1 SE 19.0 0.8 1.6
13:46 9.1 9.0 99 988.5 9.8 SE 19.0 0.0 1.6
13:47 9.2 9.1 99 988.4 12.1 E 19.0 0.0 1.6
13:48 9.1 9.0 99 988.3 15.9 SE 19.0 0.0 1.7
13:49 9.1 9.0 99 988.3 9.2 NE 19.0 0.8 1.7
13:50 9.1 9.0 99 988.3 6.9 WNW 15.9 0.8 1.7
13:51 9.1 9.0 99 988.4 10.7 SE 15.9 0.8 1.7
13:52 9.1 9.0 99 988.2 14.5 N 15.9 0.8 1.7
13:53 9.1 9.0 99 988.3 9.2 SE 15.9 0.8 1.7
13:54 9.1 9.0 99 988.2 9.8 SE 15.9 0.0 1.7
13:55 9.1 9.0 99 988.2 12.1 SE 15.9 0.0 1.7
13:56 9.1 9.0 99 988.2 18.3 SE 18.3 0.0 1.7
13:57 9.1 9.0 99 988.1 13.6 E 18.3 0.0 1.7
13:59 9.1 9.0 99 987.9 13.0 SE 18.3 0.8 1.8
14:00 9.1 9.0 99 987.9 13.0 SE 18.3 0.8 1.8
14:02 9.1 9.0 99 988.2 13.0 NE 18.3 1.5 1.8
14:03 9.1 9.0 99 988.2 13.0 SE 18.3 1.5 1.8
14:04 9.0 8.9 99 988.1 9.8 SE 18.3 1.5 1.9
14:05 9.0 8.9 99 988.0 16.8 SE 18.3 2.3 2.0
14:06 9.1 9.0 99 988.1 17.4 SE 18.3 2.3 2.0
14:07 9.0 8.9 99 987.9 11.4 N 17.4 1.5 2.0
14:08 9.0 8.9 99 988.1 12.1 S 17.4 1.5 2.0
14:09 9.0 8.9 99 988.2 15.2 SE 17.4 1.5 2.0
14:10 9.0 8.9 99 988.1 16.8 SE 17.4 0.8 2.0
14:11 9.0 8.9 99 988.2 15.9 N 17.4 1.5 2.1
14:12 9.0 8.9 99 987.9 13.6 NE 17.4 1.5 2.1
14:14 9.0 8.9 99 987.9 12.1 SE 17.4 0.8 2.1
14:15 9.0 8.9 99 987.9 17.4 SE 17.4 1.5 2.1
14:17 9.0 8.9 99 987.8 10.7 SE 17.4 0.8 2.1
14:18 9.0 8.9 99 987.7 11.4 SE 17.4 0.8 2.2
14:20 9.0 8.9 99 987.8 13.0 S 17.4 0.8 2.2
14:21 9.0 8.9 99 987.8 15.9 SE 17.4 0.8 2.2
14:22 9.0 8.9 99 987.7 14.5 S 17.4 0.8 2.2
14:23 9.0 8.9 99 987.8 15.2 SE 17.4 0.8 2.2
14:24 9.0 8.9 99 987.7 12.1 SE 17.4 0.0 2.2
14:26 9.0 8.9 99 987.7 11.4 SE 15.9 0.8 2.3
14:27 9.0 8.9 99 987.7 11.4 E 15.9 0.8 2.3
14:28 9.0 8.9 99 987.9 8.3 SE 15.9 1.5 2.3
14:29 9.0 8.9 99 987.7 9.2 SE 15.9 1.5 2.3
14:30 9.1 9.0 99 987.7 12.1 SE 15.9 0.8 2.3
14:31 9.0 8.9 99 987.8 9.8 S 15.9 0.8 2.3
14:32 9.1 9.0 99 987.7 14.5 SE 15.2 0.8 2.3
14:33 9.0 8.9 99 987.7 12.1 SE 14.5 0.0 2.3
14:34 9.1 9.0 99 987.7 9.8 SE 14.5 0.0 2.4
14:35 9.0 8.9 99 987.7 7.6 SE 14.5 0.8 2.4
14:36 9.0 8.9 99 987.7 14.5 E 14.5 0.8 2.4
14:37 9.0 8.9 99 987.7 9.8 SE 14.5 0.8 2.4
14:38 9.0 8.9 99 987.7 11.4 SE 14.5 0.8 2.5
14:39 9.0 8.9 99 987.7 13.6 E 14.5 1.5 2.5
14:40 9.0 8.9 99 987.7 13.6 SE 14.5 0.8 2.5
14:41 9.0 8.9 99 987.7 9.2 SE 14.5 0.8 2.5
14:42 9.0 8.9 99 987.7 15.2 SE 15.2 0.8 2.5
14:43 9.0 8.9 99 987.6 13.0 NE 15.2 0.8 2.5
14:44 9.0 8.9 99 987.5 8.3 SE 15.2 0.8 2.5
14:45 9.0 8.9 99 987.6 14.5 SE 15.2 0.8 2.5
14:46 9.0 8.9 99 987.4 16.8 SE 16.8 0.8 2.5
14:48 9.0 8.9 99 987.6 11.4 S 16.8 0.8 2.5
14:49 9.0 8.9 99 987.4 13.0 SE 16.8 0.8 2.6
14:50 9.0 8.9 99 987.4 12.1 SE 16.8 0.8 2.6
14:51 9.0 8.9 99 987.4 10.7 SE 16.8 0.8 2.6
14:52 9.0 8.9 99 987.3 13.0 NW 16.8 0.8 2.6
14:53 9.0 8.9 99 987.5 13.0 E 16.8 0.8 2.6
14:54 9.0 8.9 99 987.5 9.8 SE 16.8 0.0 2.6
14:55 9.0 8.9 99 987.3 13.0 SE 16.8 0.0 2.6
14:56 9.0 8.9 99 987.3 19.7 SE 19.7 0.8 2.6
14:57 9.0 8.9 99 987.3 10.7 SE 19.7 0.8 2.6
14:58 9.0 8.9 99 987.4 13.0 E 19.7 0.8 2.6
14:59 9.0 8.9 99 987.2 11.4 SE 19.7 0.8 2.6
15:00 9.0 8.9 99 987.2 9.2 SE 19.7 0.8 2.6
15:01 9.0 8.9 99 987.3 9.2 SE 19.7 0.0 2.6
15:02 9.0 8.9 99 987.3 9.2 SE 19.7 0.0 2.6
15:03 9.0 8.9 99 987.2 9.2 SE 19.7 0.0 2.6
15:04 9.0 8.9 99 987.3 9.2 SE 19.7 0.0 2.6
15:05 9.0 8.9 99 987.2 9.2 SE 19.7 0.0 2.6
15:06 9.0 8.9 99 987.2 5.4 E 16.8 0.8 2.8
15:07 9.0 8.9 99 987.1 15.9 E 15.9 1.5 2.8
15:09 9.0 8.9 99 987.0 13.6 SE 15.9 1.5 2.8
15:11 9.0 8.9 99 987.1 8.3 E 15.9 1.5 2.8
15:12 9.0 8.9 99 986.9 14.5 SE 15.9 0.8 2.8
15:13 9.0 8.9 99 987.1 11.4 SE 15.9 0.8 2.8
15:14 9.0 8.9 99 987.1 9.8 SE 15.9 0.8 2.8
15:15 9.0 8.9 99 986.8 9.2 E 15.9 0.8 2.8
15:16 8.9 8.8 99 987.1 10.7 SE 15.9 0.8 2.9
15:17 8.9 8.8 99 986.9 7.6 NE 15.9 0.8 2.9
15:18 8.9 8.8 99 986.9 6.9 E 15.9 0.8 2.9
15:19 8.9 8.8 99 986.9 13.0 SE 14.5 1.5 3.0
15:20 9.0 8.9 99 986.9 8.3 SE 14.5 1.5 3.0
15:21 8.9 8.8 99 986.9 9.8 N 14.5 0.8 3.0
15:22 8.9 8.8 99 986.7 9.8 NE 13.6 0.8 3.0
15:23 9.0 8.9 99 986.9 9.2 N 13.6 0.8 3.0
15:24 9.0 8.9 99 986.8 6.9 E 13.6 0.0 3.0
15:25 9.0 8.9 99 986.8 4.5 NW 13.6 0.8 3.0
15:26 8.9 8.8 99 986.7 9.2 E 14.5 0.8 3.0
15:27 8.9 8.8 99 986.6 11.4 NE 14.5 0.8 3.0
15:28 8.9 8.8 99 986.6 6.0 NW 14.5 0.8 3.0
15:30 8.9 8.8 99 986.7 7.6 SE 14.5 0.8 3.1
15:31 8.9 8.8 99 986.6 5.4 SE 14.5 0.8 3.1
15:32 8.9 8.8 99 986.7 7.6 NE 14.5 0.8 3.1
15:33 8.9 8.8 99 986.7 9.8 NE 14.5 0.8 3.1
15:34 9.0 8.9 99 986.6 7.6 S 14.5 0.8 3.1
15:35 9.0 8.9 99 986.7 9.8 S 14.5 0.0 3.1
15:36 9.0 8.9 99 986.7 10.7 SE 11.4 0.0 3.1
15:37 9.0 8.9 99 986.7 6.9 E 11.4 0.0 3.1
15:39 8.9 8.8 99 986.7 10.7 SE 11.4 0.8 3.1
15:40 9.0 8.9 99 986.6 11.4 NE 11.4 0.8 3.1
15:42 9.0 8.9 99 986.6 6.0 N 11.4 1.5 3.2
15:44 9.0 8.9 99 986.6 12.1 NE 12.1 0.8 3.2
15:45 9.0 8.9 99 986.6 10.7 SE 15.9 0.8 3.2
15:46 8.9 8.8 99 986.5 9.8 SE 15.9 0.8 3.2
15:47 9.0 8.9 99 986.4 7.6 NE 15.9 0.0 3.2
15:48 9.0 8.9 99 986.4 12.1 E 15.9 0.0 3.3
15:49 8.9 8.8 99 986.2 13.6 SE 15.9 0.8 3.3
15:51 8.9 8.8 99 986.3 9.8 N 16.8 0.8 3.3
15:52 9.0 8.9 99 986.1 13.0 E 16.8 0.8 3.3
15:53 9.0 8.9 99 986.3 6.9 SE 16.8 0.8 3.3
15:55 9.0 8.9 99 986.2 9.8 SE 16.8 0.8 3.3
15:57 8.9 8.8 99 986.1 8.3 N 16.8 0.8 3.3
15:58 8.9 8.8 99 986.0 6.9 SE 16.8 0.8 3.3
16:00 8.9 8.8 99 986.0 11.4 SE 15.2 0.0 3.3
16:03 8.9 8.8 99 985.8 11.4 SE 15.2 0.0 3.3
16:05 8.9 8.8 99 985.8 9.8 E 15.2 1.5 3.5
16:06 8.9 8.8 99 985.9 9.8 SE 15.2 1.5 3.5
16:07 8.9 8.8 99 985.9 9.2 N 15.2 1.5 3.5
16:09 8.9 8.8 99 986.0 13.6 NE 14.5 1.5 3.5
16:10 8.9 8.8 99 985.9 14.5 NE 14.5 0.0 3.5
16:11 8.9 8.8 99 985.9 9.8 E 14.5 0.8 3.5
16:12 8.9 8.8 99 985.8 12.1 S 14.5 0.8 3.5
16:13 8.9 8.8 99 985.8 10.7 NE 14.5 0.8 3.5
16:15 8.9 8.8 99 985.7 8.3 SE 14.5 1.5 3.6
16:16 8.9 8.8 99 985.9 10.7 SE 14.5 0.8 3.6
16:17 8.9 8.8 99 985.7 13.6 SE 14.5 0.8 3.6
16:19 8.9 8.8 99 985.9 9.8 SE 14.5 0.8 3.7
16:21 8.9 8.8 99 985.8 8.3 SE 17.4 0.8 3.7
16:23 8.9 8.8 99 985.9 7.6 NE 17.4 0.8 3.7
16:24 8.9 8.8 99 985.7 10.7 SE 17.4 1.5 3.7
16:26 8.9 8.8 99 985.7 11.4 SE 17.4 0.8 3.7
16:27 8.9 8.8 99 985.8 9.2 S 17.4 0.8 3.8
16:29 8.9 8.8 99 985.8 12.1 WNW 17.4 1.5 3.8
16:31 8.9 8.8 99 985.9 14.5 SE 14.5 3.0 4.0
16:32 8.9 8.8 99 985.8 12.1 SE 14.5 4.5 4.1
16:34 9.0 8.9 99 985.9 11.4 SE 15.9 5.3 4.3
16:36 8.9 8.8 99 985.7 12.1 SE 15.9 4.5 4.3
16:38 8.9 8.8 99 985.6 10.7 SE 15.9 4.5 4.5
16:39 8.9 8.8 99 985.7 15.2 N 19.0 2.3 4.5
16:40 8.9 8.8 99 985.4 13.0 E 19.0 2.3 4.5
16:42 9.0 8.9 99 985.7 13.6 E 19.0 2.3 4.6
16:44 9.0 8.9 99 985.6 14.5 SE 19.7 1.5 4.6
16:45 9.0 8.9 99 985.4 13.0 E 19.7 0.8 4.6
16:46 9.0 8.9 99 985.2 14.5 SE 19.7 0.8 4.7
16:47 9.0 8.9 99 985.6 12.1 S 19.7 0.8 4.7
16:48 9.0 8.9 99 985.4 15.2 SE 19.7 0.8 4.7
16:50 9.0 8.9 99 985.4 17.4 SE 19.7 1.5 4.7
16:51 9.1 9.0 99 985.4 14.5 E 19.7 0.8 4.8
16:53 9.1 9.0 99 985.4 19.7 E 19.7 1.5 4.8
16:54 9.1 9.0 99 985.5 17.4 SE 19.7 1.5 4.9
16:55 9.1 9.0 99 985.6 15.9 SE 19.7 1.5 4.9
16:56 9.1 9.0 99 985.6 15.2 S 19.7 2.3 4.9
16:57 9.1 9.0 99 985.6 20.6 SE 20.6 1.5 4.9
16:58 9.1 9.0 99 985.6 14.5 S 20.6 1.5 4.9
16:59 9.2 9.1 99 985.5 16.8 SE 20.6 1.5 5.0
17:00 9.2 9.1 99 985.4 16.8 SE 20.6 1.5 5.0
17:01 9.2 9.1 99 985.3 16.8 SE 20.6 0.8 5.0
17:03 9.1 9.0 99 985.5 15.2 SE 20.6 1.5 5.0
17:04 9.1 9.0 99 985.2 17.4 SE 20.6 0.8 5.0
17:05 9.2 9.1 99 985.2 18.3 SE 20.6 0.8 5.0
17:06 9.1 9.0 99 985.3 15.2 S 20.6 1.5 5.1
17:07 9.1 9.0 99 985.5 11.4 SE 20.6 1.5 5.1
17:08 9.2 9.1 99 985.4 13.6 SE 18.3 0.8 5.1
17:09 9.1 9.0 99 985.4 13.6 SE 18.3 0.8 5.1
17:10 9.1 9.0 99 985.4 15.2 S 18.3 0.8 5.2
17:12 9.1 9.0 99 985.5 14.5 SE 18.3 0.8 5.2
17:13 9.2 9.1 99 985.3 10.7 SE 18.3 1.5 5.2
17:14 9.1 9.0 99 985.3 22.1 SE 22.1 1.5 5.2
17:15 9.2 9.1 99 985.2 13.6 W 22.1 1.5 5.2
17:16 9.1 9.0 99 985.1 19.7 NE 22.1 0.8 5.3
17:18 9.2 9.1 99 985.0 16.8 SE 22.1 0.8 5.3
17:19 9.2 9.1 99 985.0 16.8 SE 22.1 0.8 5.4
17:20 9.1 9.0 99 985.0 18.3 SE 22.1 1.5 5.4
17:21 9.2 9.1 99 985.1 16.8 SE 22.1 1.5 5.4
17:23 9.2 9.1 99 985.1 15.2 SE 22.1 0.8 5.4
17:24 9.2 9.1 99 985.0 13.6 E 22.1 0.8 5.4
17:25 9.2 9.1 99 984.9 11.4 SE 19.7 0.8 5.4
17:26 9.2 9.1 99 985.0 9.2 W 19.7 0.8 5.4
17:27 9.2 9.1 99 985.0 13.0 SE 18.3 0.8 5.4
17:28 9.2 9.1 99 984.9 13.6 S 18.3 0.8 5.4
17:29 9.2 9.1 99 985.0 13.6 E 18.3 1.5 5.5
17:30 9.2 9.1 99 984.9 14.5 SE 18.3 0.8 5.5
17:31 9.2 9.1 99 985.1 11.4 SE 17.4 0.8 5.5
17:32 9.2 9.1 99 985.0 10.7 W 15.9 0.8 5.5
17:34 9.2 9.1 99 984.8 19.0 NW 19.0 0.0 5.5
17:36 9.2 9.1 99 984.9 11.4 W 19.0 0.8 5.5
17:38 9.2 9.1 99 984.9 15.2 SE 19.0 1.5 5.6
17:40 9.2 9.1 99 984.8 15.9 SE 19.0 0.8 5.7
17:42 9.2 9.1 99 984.9 11.4 SE 19.0 1.5 5.7
17:44 9.2 9.1 99 985.0 16.8 SE 19.0 1.5 5.7
17:46 9.2 9.1 99 985.0 11.4 S 16.8 1.5 5.8
17:48 9.2 9.1 99 984.7 10.7 SE 16.8 1.5 5.9
17:50 9.2 9.1 99 984.8 13.0 SE 16.8 1.5 5.9
17:52 9.2 9.1 99 984.4 9.8 SE 16.8 1.5 5.9
17:54 9.2 9.1 99 984.6 15.9 SE 16.8 1.5 6.0
17:56 9.2 9.1 99 984.6 13.6 SE 15.9 0.8 6.0
17:57 9.2 9.1 99 984.6 18.3 E 18.3 0.8 6.0
17:59 9.2 9.1 99 984.5 12.1 SE 18.3 1.5 6.1
18:01 9.2 9.1 99 984.4 15.9 WSW 18.3 1.5 6.1
18:03 9.2 9.1 99 984.7 13.6 SE 18.3 2.3 6.3
18:05 9.2 9.1 99 984.5 15.2 SE 18.3 2.3 6.4
18:07 9.2 9.1 99 984.5 17.4 SE 18.3 1.5 6.4
18:10 9.2 9.1 99 984.2 15.2 SE 18.3 2.3 6.5
18:12 9.2 9.1 99 984.3 20.6 SE 20.6 1.5 6.5
18:14 9.2 9.1 99 984.3 9.8 SE 20.6 1.5 6.6
18:17 9.2 9.1 99 984.2 16.8 SE 20.6 2.3 6.7
18:19 9.2 9.1 99 984.0 15.9 SE 20.6 3.0 6.9
18:21 9.2 9.1 99 984.2 12.1 SE 20.6 4.5 7.1
18:23 9.2 9.1 99 984.0 5.4 E 16.8 5.3 7.2
18:24 9.2 9.1 99 984.2 14.5 SE 16.8 6.0 7.5
18:26 9.1 9.0 99 984.2 9.8 SE 16.8 9.1 7.7
18:27 9.1 9.0 99 984.2 10.7 SE 15.9 8.3 7.9
18:29 9.1 9.0 99 984.2 13.0 SE 16.8 9.8 8.1
18:30 9.1 9.0 99 984.3 12.1 SE 16.8 7.6 8.3
18:32 9.1 9.0 99 984.3 13.0 SE 16.8 6.8 8.4
18:33 9.1 9.0 99 984.3 9.2 SE 16.8 6.8 8.5
18:34 9.1 9.0 99 984.3 8.3 SE 16.8 5.3 8.6
18:35 9.1 9.0 99 984.4 10.7 S 16.8 4.5 8.7
18:36 9.1 9.0 99 984.3 13.6 SE 16.8 4.5 8.8
18:37 9.1 9.0 99 984.3 15.2 SE 16.8 6.0 9.0
18:38 9.1 9.0 99 984.2 14.5 SE 15.2 6.0 9.1
18:40 9.1 9.0 99 984.2 15.9 S 15.9 6.8 9.2
18:41 9.1 9.0 99 984.3 12.1 WSW 15.9 7.5 9.3
18:42 9.1 9.0 99 984.3 13.6 S 15.9 6.0 9.4
18:44 9.0 8.9 99 984.3 14.5 S 15.9 4.5 9.5
18:45 9.0 8.9 99 984.4 19.0 S 19.0 5.3 9.6
18:46 9.0 8.9 99 984.4 13.6 S 19.0 3.8 9.6
18:47 8.9 8.8 99 984.5 15.9 SE 19.0 3.8 9.7
18:48 8.8 8.7 99 984.4 12.1 SE 19.0 3.8 9.8
18:49 8.7 8.6 99 984.4 13.6 SE 19.0 3.8 9.9
18:50 8.7 8.6 99 984.3 13.0 SE 19.0 3.0 9.9
18:52 8.6 8.5 99 984.4 13.0 SE 19.0 3.8 10.0
18:53 8.6 8.5 99 984.3 12.1 S 19.0 3.8 10.1
18:54 8.5 8.4 99 984.3 11.4 SE 19.0 3.8 10.1
18:55 8.5 8.4 99 984.4 12.1 SE 15.9 3.0 10.3
18:56 8.5 8.4 99 984.2 9.8 SE 15.9 4.5 10.3
18:57 8.5 8.4 99 984.2 12.1 S 13.6 3.8 10.4
18:59 8.4 8.3 99 984.1 9.2 SE 13.6 3.8 10.5
19:00 8.4 8.3 99 984.3 8.3 S 13.0 4.5 10.5
19:02 8.4 8.3 99 984.2 6.9 S 13.0 3.0 10.6
19:03 8.3 8.2 99 984.4 9.8 SE 12.1 2.3 10.6
19:05 8.3 8.2 99 984.5 9.8 SE 12.1 1.5 10.6
19:06 8.3 8.2 99 984.4 8.3 SE 12.1 2.3 10.7
19:08 8.3 8.2 99 984.4 7.6 S 13.0 2.3 10.8
19:09 8.3 8.2 99 984.4 9.2 S 13.0 1.5 10.8
19:10 8.3 8.2 99 984.3 10.7 SE 13.0 2.3 10.8
19:12 8.3 8.2 99 984.2 10.7 SE 13.0 2.3 10.9
19:13 8.3 8.2 99 984.2 7.6 S 13.0 1.5 10.9
19:14 8.2 8.1 99 984.2 9.8 S 13.0 1.5 10.9
19:15 8.2 8.1 99 984.3 7.6 S 13.0 1.5 11.0
19:17 8.2 8.1 99 984.1 7.6 S 13.0 1.5 11.0
19:18 8.2 8.1 99 984.2 6.0 S 10.7 1.5 11.0
19:21 8.2 8.1 99 984.2 9.2 SE 10.7 1.5 11.1
19:22 8.2 8.1 99 984.2 9.8 S 10.7 0.8 11.1
19:23 8.2 8.1 99 984.1 7.6 SE 10.7 0.8 11.1
19:24 8.3 8.2 99 984.2 9.2 S 10.7 0.8 11.1
19:26 8.3 8.2 99 984.2 9.8 SE 10.7 0.8 11.2
19:27 8.3 8.2 99 984.1 8.3 S 10.7 0.8 11.2
19:29 8.3 8.2 99 984.2 7.6 S 10.7 1.5 11.2
19:30 8.3 8.2 99 984.3 6.9 S 10.7 0.8 11.2
19:32 8.3 8.2 99 984.1 8.3 W 9.8 1.5 11.3
19:33 8.3 8.2 99 984.2 9.2 S 9.8 1.5 11.3
19:34 8.3 8.2 99 984.1 7.6 S 9.8 1.5 11.3
19:36 8.3 8.2 99 984.2 8.3 S 9.8 0.8 11.3
19:37 8.4 8.3 99 984.2 9.8 S 9.8 1.5 11.4
19:38 8.4 8.3 99 984.2 10.7 SE 10.7 1.5 11.4
19:39 8.4 8.3 99 984.1 7.6 S 11.4 0.8 11.4
19:41 8.3 8.2 99 984.3 9.2 S 11.4 0.8 11.4
19:42 8.4 8.3 99 984.2 11.4 SE 11.4 0.8 11.5
19:43 8.3 8.2 99 984.2 9.8 S 11.4 0.8 11.5
19:45 8.4 8.3 99 984.1 9.2 SE 11.4 1.5 11.5
19:46 8.4 8.3 99 984.2 9.8 S 11.4 1.5 11.5
19:48 8.4 8.3 99 984.2 11.4 SE 13.0 0.8 11.5
19:49 8.4 8.3 99 984.3 10.7 S 13.0 1.5 11.6
19:51 8.4 8.3 99 984.2 15.2 S 15.2 0.8 11.7
19:52 8.4 8.3 99 984.2 9.2 S 15.2 1.5 11.7
19:54 8.4 8.3 99 984.1 12.1 S 15.2 0.8 11.7
19:55 8.4 8.3 99 984.1 10.7 S 15.2 0.8 11.7
19:56 8.4 8.3 99 984.2 8.3 S 15.2 0.8 11.7
19:57 8.4 8.3 99 984.2 8.3 NNW 15.2 0.0 11.7
19:59 8.4 8.3 99 984.2 13.6 NW 15.2 0.8 11.7
20:00 8.4 8.3 99 984.2 15.2 S 15.2 0.8 11.7
20:01 8.4 8.3 99 983.9 15.2 S 15.2 0.8 11.7
20:03 8.4 8.3 99 984.2 15.2 S 15.2 0.8 11.7
20:04 8.4 8.3 99 984.1 15.2 S 15.2 0.0 11.7
20:07 8.3 8.2 99 984.1 8.3 S 15.2 0.0 11.7
20:08 8.3 8.2 99 984.2 11.4 SE 15.2 0.8 11.8
20:10 8.3 8.2 99 984.2 10.7 S 15.2 0.8 11.8
20:12 8.3 8.2 99 984.2 9.8 SE 15.2 0.8 11.8
20:14 8.3 8.2 99 984.2 8.3 SE 15.2 0.0 11.8
20:15 8.3 8.2 99 984.3 10.7 S 15.2 0.8 11.8
20:16 8.2 8.1 99 984.1 10.7 S 13.0 0.8 11.8
20:18 8.2 8.1 99 984.1 9.2 S 13.0 0.8 11.8
20:19 8.2 8.1 99 984.1 9.8 S 11.4 1.5 11.9
20:21 8.2 8.1 99 984.0 5.4 SE 11.4 0.8 11.9
20:22 8.2 8.1 99 984.1 8.3 S 11.4 0.8 11.9
20:24 8.2 8.1 99 984.2 9.8 SE 11.4 0.0 12.0
20:26 8.2 8.1 99 984.0 7.6 S 11.4 0.8 12.0
20:27 8.2 8.1 99 984.1 8.3 W 9.8 0.8 12.0
20:30 8.2 8.1 99 984.1 9.8 SE 9.8 0.8 12.0
20:32 8.1 8.0 99 983.9 6.9 S 9.8 0.8 12.1
20:34 8.1 8.0 99 984.0 6.0 SE 9.8 0.8 12.1
20:36 8.1 8.0 99 983.8 7.6 S 9.8 1.5 12.2
20:37 8.1 8.0 99 984.0 5.4 S 9.8 1.5 12.2
20:40 8.1 8.0 99 983.8 8.3 SE 11.4 0.8 12.2
20:42 8.1 8.0 99 983.8 9.8 SE 11.4 0.0 12.2
20:43 8.1 8.0 99 983.9 9.2 SE 11.4 0.8 12.2
20:46 8.0 7.9 99 983.8 8.3 SE 11.4 0.8 12.2
20:48 8.0 7.9 99 983.7 10.7 SE 10.7 0.0 12.2
20:51 8.0 7.9 99 983.7 8.3 SE 10.7 0.8 12.3
20:53 8.0 7.9 99 983.7 6.9 SE 10.7 0.8 12.3
20:55 8.0 7.9 99 983.6 9.2 SE 10.7 0.0 12.3
20:57 8.0 7.9 99 983.5 8.3 SE 11.4 0.8 12.3
20:58 8.0 7.9 99 983.7 7.6 SE 11.4 0.8 12.3
21:00 8.0 7.9 99 983.6 8.3 SE 11.4 1.5 12.4
21:01 8.0 7.9 99 983.5 8.3 SE 11.4 1.5 12.4
21:03 8.0 7.9 99 983.5 8.3 SE 11.4 0.8 12.4
21:05 8.0 7.9 99 983.7 8.3 SE 11.4 0.0 12.4
21:07 8.0 7.9 99 983.5 7.6 SE 9.2 0.0 12.4
21:08 8.0 7.9 99 983.4 6.0 SE 9.2 0.0 12.4
21:09 8.0 7.9 99 983.6 10.7 SE 10.7 0.0 12.4
21:11 8.0 7.9 99 983.7 11.4 SE 11.4 0.0 12.4
21:13 7.9 7.8 99 983.6 8.3 SE 11.4 0.0 12.4
21:14 8.0 7.9 99 983.6 6.9 SE 11.4 0.0 12.4
21:16 8.0 7.9 99 983.5 8.3 SE 11.4 0.8 12.5
21:17 8.0 7.9 99 983.6 8.3 SE 11.4 0.8 12.5
21:18 8.0 7.9 99 983.5 8.3 SE 11.4 0.8 12.5
21:19 8.0 7.9 99 983.5 6.0 SE 11.4 1.5 12.5
21:21 8.0 7.9 99 983.5 6.0 SE 9.2 0.8 12.5
21:22 8.0 7.9 99 983.5 4.5 SE 9.2 0.8 12.5
21:23 8.0 7.9 99 983.5 7.6 SE 9.2 0.8 12.5
21:24 8.0 7.9 99 983.5 7.6 SE 9.2 0.0 12.5
21:25 8.0 7.9 99 983.5 8.3 SE 9.2 0.0 12.5
21:26 8.0 7.9 99 983.4 6.9 SE 9.2 0.0 12.5
21:27 8.0 7.9 99 983.4 7.6 SE 8.3 0.0 12.5
21:28 8.0 7.9 99 983.4 6.9 SE 8.3 0.0 12.5
21:30 8.0 7.9 99 983.3 8.3 SE 8.3 0.0 12.5
21:31 8.0 7.9 99 983.4 8.3 SE 8.3 0.0 12.5
21:32 8.0 7.9 99 983.3 8.3 E 9.2 0.0 12.5
21:33 8.1 8.0 99 983.3 8.3 SE 9.2 0.0 12.5
21:35 8.0 7.9 99 983.3 8.3 E 9.2 0.0 12.5
21:36 8.1 8.0 99 983.3 6.9 SE 9.2 0.0 12.5
21:37 8.1 8.0 99 983.2 8.3 SE 9.2 0.0 12.5
21:38 8.1 8.0 99 983.2 6.9 SE 9.2 0.0 12.5
21:39 8.1 8.0 99 983.2 9.2 SE 9.2 0.0 12.5
21:41 8.1 8.0 99 983.2 11.4 SE 11.4 0.0 12.5
21:42 8.1 8.0 99 983.2 10.7 SE 11.4 0.0 12.5
21:43 8.1 8.0 99 983.2 9.2 S 11.4 0.0 12.6
21:44 8.1 8.0 99 983.2 9.8 SE 11.4 0.8 12.6
21:45 8.2 8.1 99 983.0 9.2 SE 11.4 0.8 12.6
21:46 8.2 8.1 99 983.0 9.8 SE 11.4 0.8 12.6
21:48 8.2 8.1 99 983.2 6.9 SE 11.4 0.8 12.6
21:49 8.2 8.1 99 983.1 11.4 SE 13.0 0.0 12.6
21:50 8.2 8.1 99 983.0 9.2 E 13.0 0.0 12.6
21:51 8.2 8.1 99 983.1 10.7 SE 13.0 0.0 12.6
21:52 8.2 8.1 99 983.0 6.9 SE 13.0 0.0 12.6
21:53 8.2 8.1 99 983.1 11.4 SE 13.0 0.0 12.6
21:55 8.2 8.1 99 983.1 6.9 SE 13.0 0.0 12.6
21:56 8.2 8.1 99 983.2 10.7 SE 13.0 0.0 12.6
21:57 8.2 8.1 99 983.2 9.8 SE 13.0 0.0 12.6
21:58 8.3 8.2 99 983.4 9.8 SE 13.0 0.0 12.6
21:59 8.3 8.2 99 983.2 13.6 SE 13.6 0.0 12.6
22:00 8.3 8.2 99 983.2 13.6 SE 13.6 0.0 12.6
22:01 8.3 8.2 99 983.4 13.6 SE 13.6 0.0 12.6
22:03 8.3 8.2 99 983.3 13.6 SE 13.6 0.0 12.6
22:04 8.3 8.2 99 983.4 13.6 SE 13.6 0.0 12.6
22:05 8.3 8.2 99 983.2 12.1 SE 13.6 0.0 12.6
22:06 8.3 8.2 99 983.1 11.4 SE 13.6 0.0 12.6
22:08 8.4 8.3 99 983.2 8.3 SE 13.6 0.0 12.6
22:10 8.4 8.3 99 983.2 10.7 S 13.6 0.0 12.6
22:12 8.4 8.3 99 983.2 11.4 S 13.6 0.0 12.6
22:13 8.4 8.3 99 983.2 10.7 SE 13.6 0.0 12.6
22:14 8.4 8.3 99 983.1 11.4 SE 13.6 0.0 12.6
22:16 8.4 8.3 99 983.0 15.2 SE 15.2 0.0 12.6
22:17 8.4 8.3 99 983.1 11.4 SE 15.2 0.0 12.6
22:18 8.4 8.3 99 983.0 11.4 SE 15.2 0.0 12.6
22:19 8.5 8.4 99 983.0 11.4 SE 15.2 0.0 12.6
22:21 8.5 8.4 99 982.9 10.7 SE 15.2 0.0 12.6
22:23 8.5 8.4 99 982.8 12.1 SE 15.2 0.8 12.7
22:25 8.4 8.3 99 982.8 9.2 SE 15.2 0.8 12.7
22:28 8.5 8.4 99 982.8 15.9 SE 16.8 0.0 12.7
22:30 8.5 8.4 99 982.7 14.5 SE 16.8 0.0 12.7
22:34 8.5 8.4 99 982.8 11.4 SE 16.8 0.0 12.7
22:37 8.5 8.4 99 982.7 16.8 SE 16.8 0.0 12.7
22:39 8.5 8.4 99 982.8 15.9 SE 16.8 0.0 12.7
22:42 8.5 8.4 99 982.7 10.7 SE 16.8 0.0 12.7
22:44 8.5 8.4 99 982.6 9.8 SE 16.8 0.0 12.7
22:47 8.5 8.4 99 982.8 12.1 SE 16.8 0.0 12.7
22:49 8.5 8.4 99 982.7 10.7 S 15.9 0.0 12.7
22:51 8.6 8.5 99 982.7 10.7 SE 14.5 0.0 12.7
22:54 8.6 8.5 99 982.8 13.6 SE 14.5 0.0 12.7
22:56 8.6 8.5 99 982.9 10.7 SE 14.5 0.0 12.7
22:59 8.5 8.4 99 982.7 14.5 SE 14.5 0.0 12.7
23:02 8.5 8.4 99 982.7 14.5 SE 14.5 0.0 12.7
23:04 8.5 8.4 99 982.6 14.5 SE 14.5 0.0 12.7
23:06 8.5 8.4 99 982.7 11.4 SE 14.5 0.0 12.7
23:08 8.6 8.5 99 982.9 12.1 E 14.5 0.0 12.7
23:10 8.6 8.5 99 982.7 12.1 SE 15.2 0.0 12.7
23:11 8.5 8.4 99 982.7 9.2 SE 15.2 0.0 12.7
23:14 8.5 8.4 99 982.8 9.2 SE 15.2 0.0 12.7
23:15 8.5 8.4 99 982.9 10.7 SE 15.2 0.0 12.7
23:18 8.6 8.5 99 982.9 9.8 SE 15.2 0.0 12.7
23:19 8.5 8.4 99 983.0 9.8 SE 14.5 0.0 12.7
23:21 8.6 8.5 99 982.9 9.8 SE 14.5 0.0 12.7
23:23 8.5 8.4 99 982.8 10.7 SE 14.5 0.0 12.7
23:24 8.5 8.4 99 982.8 9.2 SE 14.5 0.0 12.7
23:25 8.6 8.5 99 982.8 7.6 SE 14.5 0.0 12.7
23:27 8.6 8.5 99 983.0 10.7 SE 17.4 0.0 12.7
23:28 8.6 8.5 99 983.0 10.7 SE 17.4 0.0 12.7
23:29 8.6 8.5 99 983.0 12.1 SE 17.4 0.0 12.7
23:30 8.6 8.5 99 982.9 14.5 SE 17.4 0.0 12.7
23:31 8.6 8.5 99 982.9 10.7 SE 17.4 0.0 12.7
23:32 8.6 8.5 99 982.9 11.4 SE 17.4 0.0 12.7
23:33 8.6 8.5 99 983.0 9.2 S 17.4 0.0 12.7
23:34 8.6 8.5 99 982.9 10.7 SE 17.4 0.0 12.7
23:36 8.6 8.5 99 982.7 13.6 SE 14.5 0.0 12.7
23:37 8.6 8.5 99 982.7 12.1 SE 14.5 0.0 12.7
23:38 8.6 8.5 99 982.7 10.7 SE 14.5 0.0 12.7
23:39 8.6 8.5 99 982.7 9.8 SE 14.5 0.0 12.7
23:41 8.6 8.5 99 982.8 11.4 SE 14.5 0.0 12.7
23:42 8.6 8.5 99 982.7 9.8 SE 14.5 0.0 12.7
23:43 8.6 8.5 99 982.7 15.9 SE 15.9 0.0 12.7
23:45 8.6 8.5 99 982.7 9.2 SE 15.9 0.0 12.7
23:46 8.6 8.5 99 982.8 14.5 S 15.9 0.0 12.7
23:47 8.6 8.5 99 982.8 12.1 SE 17.4 0.0 12.7
23:49 8.6 8.5 99 982.8 9.8 SE 17.4 0.0 12.7
23:50 8.6 8.5 99 982.7 13.0 S 17.4 0.0 12.7
23:51 8.6 8.5 99 982.8 9.8 SE 17.4 0.0 12.7
23:53 8.6 8.5 99 982.7 9.2 SE 17.4 0.0 12.7
23:54 8.6 8.5 99 982.7 11.4 SE 17.4 0.0 12.7
23:55 8.6 8.5 99 982.7 13.6 S 17.4 0.0 12.7
23:56 8.6 8.5 99 982.8 13.6 SE 17.4 0.0 12.7
23:57 8.6 8.5 99 982.9 9.8 SE 13.6 0.0 12.7
23:59 8.6 8.5 99 982.8 14.5 S 15.2 0.0 12.7

UK - WEATHER STATION TOPSITES - UK World Weather Websites

This is a private weather station, never base important decisions or events on data from this weather station. Although every effort has been made to make the data as accurate as possible it does not meet MetOffice standards. It is proved as a guide of local weather conditions. We accept no liability for any loss which may arise from use of the data.

Copyright © Carnkie Weather 2009 - 2018.